[{"header": {"dx": 0.06612293990616946, "dy": 0.0552356325346848, "nx": 98, "ny": 59, "la1": 35.046912555036876, "la2": 31.78801023549047, "lo1": -121.43107172385933, "lo2": -114.95102361305473, "refTime": "2026040804", "parameterCategory": 1, "parameterNumber": 2}, "data": [9.14, 9.14, 9.44, 9.44, 9.44, 9.76, 9.76, 9.38, 9.3, 9.22, 7.89, 6.97, 6.7, 7.59, 9.83, -6.64, -5.21, -3.15, -3.2, -4.56, -5.37, -5.69, -4.19, -4.74, -4.02, -3.76, -3.76, -2.8, -2.8, -2.8, -1.63, 0.0, 0.0, 1.7, 2.98, 4.84, 5.81, 6.23, 6.0, 4.74, 4.29, 4.14, 5.9, 7.59, 9.5, 11.03, 12.98, 14.73, 15.1, 12.89, 10.28, 11.02, 7.27, 5.29, 6.95, 7.56, 8.93, 9.2, 9.75, 10.52, 10.52, 10.23, 9.77, 9.32, 8.82, 7.97, 7.37, 8.29, 9.21, 11.02, 11.93, 11.46, 10.56, 10.23, 9.6, 9.64, 10.52, 11.46, 12.9, 11.87, 8.03, 4.58, 2.6, -0.0, -0.7, -0.7, -0.0, -0.0, -0.0, 2.6, 7.2, 9.64, 11.18, 12.07, 12.35, 12.35, 10.58, 6.02, 8.86, 9.14, 9.44, 9.44, 9.44, 9.76, 10.06, 10.06, 9.38, 8.85, 7.03, 5.8, 8.22, 8.93, 10.73, 9.83, -4.0, -4.4, -3.15, -3.72, -5.69, -6.01, -5.69, -4.56, -4.74, -4.02, -4.02, -4.02, -4.02, -3.45, -2.49, -1.52, 0.0, 0.0, 4.11, 5.6, 6.64, 6.64, 6.64, 6.52, 5.69, 5.9, 7.15, 7.36, 9.24, 12.01, 13.73, 14.19, 13.26, 10.91, 10.0, 9.2, 6.17, 6.95, 6.95, 7.9, 8.93, 9.2, 9.75, 10.56, 10.24, 10.24, 9.77, 9.32, 8.85, 7.74, 8.17, 8.67, 9.16, 10.12, 11.28, 11.46, 11.0, 10.24, 8.9, 8.77, 10.12, 11.46, 12.9, 11.87, 8.03, 4.58, 2.6, -0.0, -0.7, -0.7, -0.0, -0.0, -0.0, 2.6, 7.2, 9.64, 11.18, 12.07, 12.35, 12.35, 10.58, 6.02, 8.86, 9.14, 9.14, 9.44, 9.44, 9.44, 9.73, 9.73, 9.33, 8.1, 6.21, 4.25, 5.98, 7.9, 9.33, 9.83, 0.0, -2.39, -3.11, -3.32, -3.72, -5.03, -5.59, -6.01, -4.83, -4.74, -4.74, -4.74, -4.02, -3.68, -3.91, -3.68, -3.0, 0.0, 2.8, 6.32, 6.64, 7.21, 7.6, 7.44, 6.4, 6.45, 7.74, 9.88, 11.09, 12.79, 13.25, 12.47, 9.23, 8.73, 9.33, 5.9, 6.95, 7.68, 6.64, 6.95, 8.54, 9.2, 9.85, 10.12, 10.25, 10.28, 9.77, 9.32, 8.48, 7.6, 8.63, 9.75, 10.28, 10.78, 11.71, 12.2, 11.93, 10.69, 8.05, 8.05, 9.83, 12.81, 13.8, 13.23, 8.82, 5.69, 4.75, 1.03, -0.66, -0.0, -0.0, -0.0, 1.14, 4.83, 9.96, 11.4, 11.62, 11.62, 11.62, 10.52, 5.81, 5.51, 9.16, 8.86, 9.14, 9.14, 9.44, 9.44, 9.73, 9.42, 9.06, 7.53, 5.68, 4.5, 5.2, 5.29, 7.27, 8.55, 7.27, 3.39, 0.0, -2.7, -4.46, -4.56, -5.59, -6.64, -6.32, -6.79, -6.13, -5.36, -4.02, -4.56, -3.6, -4.96, -4.71, -3.8, 0.0, 5.69, 6.79, 8.43, 8.55, 8.69, 8.87, 10.05, 10.38, 10.13, 10.05, 10.68, 10.75, 7.68, 8.05, 8.67, 6.01, 7.33, 7.33, 7.33, 5.86, 7.56, 8.54, 9.21, 10.08, 10.24, 10.28, 10.28, 9.77, 9.33, 7.44, 8.15, 8.8, 9.2, 10.58, 11.55, 13.25, 14.42, 14.6, 12.52, 8.94, 8.43, 9.64, 12.48, 15.2, 13.23, 7.28, 4.54, 4.47, -0.0, -0.79, -0.81, -0.0, 1.14, 4.02, 8.58, 11.62, 10.79, 10.96, 10.41, 6.01, 4.02, 4.89, 5.58, 9.16, 8.86, 9.14, 9.14, 9.44, 9.44, 9.79, 9.42, 8.75, 7.53, 5.92, 4.5, 3.53, 4.6, 6.17, 7.59, 7.59, 6.2, 0.0, -1.58, -5.29, -5.69, -5.69, -6.98, -7.28, -7.33, -6.79, -5.69, -3.6, -2.82, -3.15, -3.3, -4.6, -3.51, 0.0, 2.7, 4.6, 7.56, 8.87, 10.22, 10.49, 9.54, 8.66, 10.01, 10.24, 10.46, 9.97, 9.39, 8.77, 7.6, 7.44, 7.44, 6.98, 6.64, 6.64, 7.56, 9.04, 9.21, 10.08, 10.25, 10.28, 10.28, 9.33, 7.68, 7.64, 8.8, 9.33, 8.79, 9.8, 10.99, 13.25, 15.34, 15.85, 15.05, 12.52, 7.98, 7.6, 9.11, 11.62, 12.35, 4.57, 4.22, 2.16, -1.18, -1.83, -1.99, -0.0, 3.6, 8.22, 11.16, 10.01, 8.58, 7.59, 1.52, -0.0, 1.98, 4.43, 7.44, 9.16, 9.16, 8.86, 9.44, 9.44, 9.44, 9.42, 9.14, 8.75, 7.23, 5.68, 3.95, 4.8, 8.55, 7.59, 7.59, 5.95, 5.2, 4.32, 0.0, -4.72, -5.76, -6.11, -7.21, -6.98, -6.64, -6.01, -4.6, -3.32, -1.84, 0.0, 0.0, -2.17, -2.41, -0.75, 0.77, 2.61, 7.03, 9.39, 9.61, 7.66, 7.19, 8.73, 10.75, 11.57, 12.52, 12.07, 10.73, 9.32, 9.03, 8.91, 8.0, 6.98, 7.33, 7.33, 9.04, 9.21, 9.54, 9.64, 10.73, 9.83, 9.74, 8.43, 7.81, 8.0, 8.99, 9.33, 8.22, 7.81, 9.85, 12.37, 13.55, 14.42, 15.12, 15.51, 13.86, 8.48, 5.6, 5.36, 9.26, 5.36, 6.07, -0.0, -2.82, -4.29, -5.69, -3.6, -0.0, 10.12, 6.0, 3.53, 6.94, 4.2, -0.0, -0.0, 3.0, 5.37, 6.95, 9.16, 9.16, 9.16, 9.44, 9.44, 9.14, 9.14, 8.85, 8.08, 7.03, 5.4, 4.07, 7.27, 9.97, 11.28, 8.93, 7.9, 7.24, 5.99, 3.96, 0.0, -4.72, -6.71, -7.38, -6.7, -5.21, -4.54, -3.39, -3.77, -3.14, -2.39, 0.0, 1.84, 1.2, 0.0, 0.0, 1.65, 5.6, 8.54, 7.43, 5.28, 3.32, 4.93, 8.3, 12.51, 11.97, 12.14, 10.68, 9.83, 10.28, 9.83, 9.21, 8.05, 8.05, 8.4, 9.03, 9.03, 9.54, 9.79, 9.83, 9.83, 9.29, 8.72, 8.0, 7.4, 8.37, 9.33, 8.6, 7.5, 8.89, 10.68, 11.58, 12.03, 14.27, 15.17, 15.65, 13.86, 8.49, 5.81, 9.83, 7.6, 7.6, -3.8, -6.32, -9.2, -10.41, -12.07, -13.41, -0.0, -0.0, -0.0, -0.0, -0.0, -0.0, 1.01, 3.0, 6.01, 6.64, 8.87, 9.16, 9.16, 9.16, 9.8, 9.5, 8.85, 8.85, 8.08, 6.27, 4.4, 3.11, 6.17, 8.94, 11.21, 10.41, 9.97, 9.62, 8.85, 9.17, 11.12, 11.62, 2.1, -2.9, -6.2, -5.16, -4.43, -5.18, -5.64, -6.5, -4.6, -2.19, 0.0, 3.39, 2.6, 1.6, 0.75, 2.51, 6.76, 6.24, 4.58, 2.71, 3.41, 5.33, 6.42, 6.2, 7.06, 9.13, 9.68, 10.41, 9.26, 9.39, 8.8, 8.43, 8.8, 8.8, 9.04, 9.54, 9.79, 9.79, 9.33, 9.29, 9.21, 7.63, 6.8, 7.4, 8.99, 8.89, 8.05, 7.6, 8.94, 10.28, 11.18, 12.04, 13.29, 12.49, 12.47, 11.84, 12.52, 14.16, 15.65, 11.45, -0.0, -5.21, -10.41, -12.07, -12.52, -12.96, -12.96, -12.07, -7.9, -2.4, -1.98, -0.0, 1.01, 3.0, 5.03, 6.01, 9.17, 9.16, 9.16, 9.16, 9.14, 9.5, 9.22, 8.46, 7.46, 5.8, 4.32, 3.68, 3.14, 4.81, 6.63, 8.85, 9.17, 9.17, 9.17, 10.01, 12.14, 12.96, 12.96, 10.35, 0.0, -3.11, -4.2, -6.44, -7.95, -6.16, -2.52, -1.17, 0.0, 2.72, 3.82, 2.82, 2.42, 1.18, 3.3, 4.4, 3.25, 3.39, 4.28, 3.21, 2.28, 2.35, 3.25, 5.46, 7.06, 8.4, 9.45, 9.39, 8.4, 7.68, 7.81, 8.15, 8.79, 9.75, 10.08, 9.34, 9.34, 8.87, 8.05, 6.0, 6.9, 7.37, 9.06, 8.8, 8.49, 7.97, 8.0, 9.36, 11.49, 11.86, 11.08, 9.8, 8.94, 10.28, 12.96, 14.95, 16.54, 11.44, 1.93, -0.0, -2.97, -9.97, -10.73, -11.18, -10.73, -9.54, -4.65, -3.07, -2.98, -2.12, -0.0, 2.8, 5.03, 6.28, 9.17, 8.87, 9.16, 9.21, 9.5, 9.5, 8.85, 8.46, 6.95, 5.8, 5.02, 5.52, 4.9, 3.68, 3.81, 4.81, 6.4, 6.6, 4.66, 4.71, 3.14, 5.11, 8.66, 10.47, 3.82, -1.25, -4.22, -6.69, -8.23, -4.48, -1.13, 0.0, 0.0, 0.0, 0.0, 2.82, 5.59, 3.4, 2.99, 2.99, 2.31, 2.23, 3.17, 3.2, 6.71, 0.0, 1.01, 2.31, 4.6, 6.32, 8.3, 8.67, 7.51, 7.81, 7.81, 8.8, 10.18, 10.96, 11.13, 10.28, 9.83, 7.6, 7.89, 5.37, 6.63, 7.37, 8.99, 9.11, 7.97, 8.33, 8.24, 10.41, 11.84, 11.4, 10.62, 9.28, 8.33, 8.67, 10.38, 13.15, 15.87, 16.05, 6.0, 2.4, 1.1, -1.4, -5.69, -7.6, -7.47, -5.2, -4.46, -3.16, -3.63, -3.22, -0.0, 2.49, 5.69, 5.06, 9.17, 8.87, 9.16, 9.21, 9.22, 9.22, 8.85, 8.33, 6.95, 5.71, 6.07, 6.45, 7.4, 6.2, 4.52, 4.04, 5.21, 4.95, 4.38, 3.96, 2.72, 1.93, 2.05, 3.22, 1.5, -1.25, -4.21, -5.21, -6.67, -4.38, 0.0, 0.8, 0.0, -1.56, -1.48, 0.0, 4.36, 5.2, 3.0, 3.2, 1.73, 0.0, 6.71, -0.0, -0.0, -5.06, -7.6, -1.95, 0.0, 0.0, 0.0, 8.0, 8.0, 8.0, 8.63, 9.63, 11.4, 12.02, 12.07, 11.18, 8.94, 7.94, 6.44, 5.59, 4.71, 6.91, 8.6, 8.72, 7.81, 7.97, 8.79, 9.9, 10.85, 10.25, 10.02, 10.41, 9.13, 8.4, 7.87, 10.25, 13.28, 15.49, 10.75, 6.43, 1.6, -0.0, -1.25, -3.68, -4.43, -4.09, -3.72, -3.72, -3.84, -4.11, -1.63, 2.26, 3.97, 5.06, 9.17, 9.17, 8.87, 9.21, 9.22, 9.22, 8.75, 8.18, 6.95, 6.27, 6.51, 6.94, 8.33, 8.38, 8.05, 6.35, 5.6, 4.85, 4.9, 4.3, 4.43, 3.41, 0.75, 0.0, 0.0, 0.0, -1.52, -2.53, -3.49, -1.98, 0.0, 0.0, -1.98, -1.7, -1.44, 0.0, 1.4, 1.25, 0.0, -8.05, -5.37, -6.8, -0.0, -0.0, -0.0, -6.0, -7.21, -7.6, -8.05, -7.6, -3.4, 0.0, 8.05, 8.05, 7.94, 8.41, 10.04, 12.01, 12.52, 10.18, 8.05, 6.01, 4.6, 1.47, 3.15, 6.32, 9.1, 10.62, 10.47, 10.28, 10.04, 9.96, 8.4, 8.0, 8.58, 9.96, 9.8, 8.37, 8.07, 9.42, 12.04, 11.21, 9.77, 9.44, 5.32, 1.96, 1.14, -1.2, -3.4, -3.63, -3.84, -3.84, -3.16, -3.79, -3.47, -0.0, 3.2, 2.26, 9.48, 9.17, 8.87, 9.21, 9.5, 9.22, 8.75, 7.46, 6.95, 6.73, 7.23, 7.64, 7.88, 9.02, 10.35, 10.75, 9.31, 6.63, 5.03, 4.77, 5.36, 5.39, 4.5, 4.43, 4.22, 4.09, 4.09, -0.0, -1.52, -6.71, -5.2, -5.81, -4.11, -5.81, 0.0, -1.98, -4.74, -7.6, -7.6, -7.6, -7.21, -4.74, 0.0, 1.41, 0.0, -2.6, -4.43, -5.06, -4.56, -3.4, -2.12, -1.18, 1.4, 4.29, 7.44, 8.4, 8.05, 10.08, 11.4, 6.71, -0.0, -0.0, -0.0, -0.0, 1.67, 4.56, 5.59, 8.93, 10.27, 11.18, 10.62, 9.83, 8.82, 7.63, 7.81, 9.6, 9.7, 8.55, 8.24, 9.2, 8.49, 7.6, 11.02, 13.23, 9.77, 8.85, 6.7, 2.09, -0.0, -0.0, -0.0, -1.66, -1.8, -2.53, -3.72, -2.8, -0.0, -0.0, 9.48, 9.17, 9.5, 9.21, 9.5, 8.86, 8.08, 7.46, 7.46, 7.46, 7.93, 7.64, 8.33, 9.02, 10.69, 11.72, 12.11, 11.17, 8.45, 6.36, 6.94, 8.53, 10.6, 11.21, 10.78, 9.66, 8.48, 6.26, -1.84, -3.76, -5.6, -5.81, -6.71, -5.81, -4.43, -4.43, -5.21, -6.79, -7.15, -6.79, -5.06, -2.49, 0.0, 0.0, 0.0, 0.0, -1.99, -2.12, -2.21, -1.39, -1.39, 0.0, 1.66, 1.96, 3.96, 4.58, 4.2, 8.05, 9.6, -3.0, -7.07, -2.83, -0.0, -0.0, -0.0, 3.2, 5.21, 5.6, 8.8, 5.69, 7.27, 8.58, 10.52, 9.64, 9.33, 10.27, 10.18, 7.45, 8.05, 7.6, 7.01, 8.49, 11.62, 12.72, 12.35, 13.23, 11.6, 5.98, 2.12, 2.2, 2.47, 1.7, -0.0, -0.0, -0.0, -1.3, -1.52, -1.23, 9.17, 9.48, 9.5, 9.5, 9.21, 8.86, 8.38, 7.46, 7.46, 7.64, 8.08, 8.33, 8.33, 9.02, 9.97, 11.36, 12.04, 12.16, 11.53, 9.44, 9.67, 10.24, 11.5, 12.7, 12.65, 12.22, 10.68, 8.0, 5.81, -3.48, -4.4, -4.92, -6.71, -7.15, -7.15, -5.37, -8.05, -7.15, -8.49, -6.4, -3.2, 0.0, -1.73, -1.41, -5.81, -4.74, 6.71, 0.0, 0.0, -1.1, -1.14, 0.0, 0.0, 0.0, 0.0, 2.12, 1.32, 2.06, 5.69, -0.0, -7.2, -7.2, -3.4, -5.37, -7.6, 7.6, 7.15, 7.15, 6.26, 2.26, 3.2, 6.17, 10.4, 10.73, 10.08, 9.39, 7.89, 7.47, 7.21, 6.99, 6.57, 6.61, 8.94, 9.6, 7.27, 11.87, 13.23, 6.2, 3.15, 2.99, 4.22, 3.9, 1.99, -0.0, -0.0, -0.0, -0.0, -0.0, 9.17, 9.48, 9.5, 9.21, 9.21, 8.78, 7.93, 7.46, 7.93, 8.08, 8.46, 8.46, 8.75, 9.02, 9.69, 10.73, 11.36, 11.38, 11.47, 11.06, 11.2, 11.25, 11.42, 12.21, 12.66, 12.52, 11.33, 10.4, 8.43, 6.8, 6.26, -5.81, -4.8, -7.6, -5.06, -4.74, -7.6, -7.6, -8.05, -7.6, 0.0, 5.81, -0.0, -3.0, -4.74, -2.26, -2.26, -0.0, 6.71, 0.0, 0.0, 0.0, 0.0, 3.0, 2.8, 6.26, 3.0, 3.97, 5.37, 8.49, -0.0, -0.0, -0.0, 6.71, 6.71, 7.15, 0.0, 8.05, 7.6, -0.0, -0.0, -0.0, 12.52, 11.62, 9.39, 6.7, 4.37, 6.32, 6.52, 6.7, 6.55, 6.99, 7.5, 7.45, 5.37, 3.76, 10.28, 5.06, 3.35, 3.4, 5.1, 3.72, 1.7, 0.82, 0.72, -0.0, -0.0, -0.0, 9.17, 9.48, 9.5, 9.21, 8.87, 8.78, 7.93, 7.93, 8.38, 8.49, 8.46, 8.46, 8.72, 9.12, 9.69, 10.39, 10.43, 10.74, 10.7, 11.06, 11.2, 11.25, 11.32, 11.99, 12.79, 13.79, 13.84, 13.39, 12.38, 11.3, 9.55, 7.2, 6.71, -8.05, -4.43, -6.0, -6.71, -7.15, -6.26, -5.81, -5.36, -5.36, -3.2, -1.98, -3.4, -3.4, -3.4, -0.0, -0.0, -0.0, 5.06, 3.2, 2.26, 3.97, 5.06, 7.15, 7.37, 8.05, 6.01, 6.32, 6.32, 5.69, 6.79, 6.36, 6.71, 5.81, 7.15, 0.0, -5.37, -5.94, -8.06, -7.9, 0.0, 0.0, 8.05, -0.0, 2.58, 5.9, 6.4, 6.32, 6.52, 6.28, 7.63, 7.94, 8.49, 6.71, 4.92, 1.41, 2.53, 5.15, 6.68, 4.74, 3.47, 2.12, 2.12, 1.3, 0.55, 0.55, 9.17, 9.48, 9.5, 9.21, 8.87, 8.51, 7.93, 7.93, 8.08, 8.49, 8.85, 9.12, 9.12, 9.12, 9.42, 10.1, 10.74, 10.74, 10.75, 10.48, 11.28, 11.53, 11.94, 11.99, 13.08, 14.82, 15.66, 15.13, 14.58, 13.28, 11.6, 9.48, 6.32, 2.8, 5.36, -5.06, -6.71, -5.94, -5.51, -5.81, -6.26, -7.15, -6.71, -5.06, -0.0, -0.0, -0.0, -0.0, -0.0, 3.4, 4.22, 4.22, 2.4, 4.22, 5.37, 7.21, 7.81, 7.2, 6.79, 6.79, 7.6, 7.2, 7.37, 6.51, 6.07, 4.84, 5.2, 6.4, 0.0, -7.9, -9.66, -6.97, -3.39, -6.32, -6.64, -2.28, 3.49, 6.95, 7.64, 6.52, 5.59, 5.81, 6.79, 9.26, 7.63, 6.08, 5.03, 2.76, 3.49, 5.69, 7.21, 5.43, 4.74, 4.75, 3.2, 2.29, 1.94, 1.94, 9.17, 9.48, 9.5, 9.21, 8.87, 8.51, 8.11, 8.38, 8.08, 8.49, 8.85, 9.12, 9.39, 9.39, 9.12, 11.06, 9.8, 9.8, 9.15, 10.19, 12.47, 13.68, 12.72, 11.58, 11.6, 13.86, 13.21, 13.89, 13.15, 11.69, 11.12, 9.66, 8.07, 6.32, 6.71, 6.26, 6.26, -5.36, -7.15, -6.71, -5.36, -5.81, -6.26, -4.74, -0.0, -0.0, -0.0, 3.6, 3.6, 3.4, 2.4, 1.84, 1.84, 1.84, 3.4, 5.69, 7.2, 7.6, 7.89, 7.89, 7.81, 7.6, 7.6, 6.26, 5.51, -0.0, -0.0, 6.0, 7.15, 7.59, 7.27, 10.96, 12.07, 11.98, 11.4, 9.6, 9.83, 9.83, 9.26, 8.41, 6.26, 7.6, 9.39, 9.83, 9.7, 8.0, 7.33, 7.07, 8.82, 8.72, 6.08, 5.21, 6.32, 6.28, 3.68, 2.8, 3.22, 3.22, 8.87, 9.48, 9.48, 9.21, 8.87, 8.51, 8.11, 8.38, 8.49, 9.14, 9.14, 9.12, 9.39, 9.39, 9.09, 9.42, 9.16, 7.48, 7.44, 8.91, 13.23, 13.49, 13.05, 12.02, 10.43, 11.94, 12.4, 12.42, 12.07, 10.41, 8.82, 7.91, 7.27, 6.98, 8.05, 6.71, 5.81, 5.2, 2.8, -0.0, -4.11, -4.46, -3.16, -2.0, -1.19, -0.0, -0.0, 5.37, 5.37, 3.4, 2.4, -0.0, -0.0, 1.84, 3.0, 4.29, 6.63, 6.52, 7.89, 8.49, 8.05, 7.6, 7.15, 7.15, -0.0, -4.11, -4.11, -0.0, 7.6, 8.41, 9.64, 12.2, 16.54, 18.55, 15.2, 11.45, 7.15, 6.87, 8.06, 7.06, 6.71, 8.05, 8.94, 8.49, 8.49, 6.4, 3.79, 3.43, 5.58, 4.6, 5.2, 7.89, 8.0, 6.9, 6.08, 5.37, 4.89, 4.89, 8.87, 9.17, 9.17, 9.17, 8.87, 8.51, 8.11, 8.38, 8.49, 9.14, 9.14, 9.12, 9.77, 9.77, 9.48, 9.84, 9.16, 7.04, 5.33, 7.73, 11.06, 11.7, 12.01, 11.7, 11.66, 11.66, 11.39, 10.75, 10.12, 8.53, 7.59, 5.38, 5.44, 4.71, 7.6, 6.71, 5.81, 5.2, 3.47, 3.72, 2.12, -0.0, -1.52, -1.23, -1.05, -0.0, -0.0, 5.37, 5.37, 3.2, -0.0, -0.0, -0.0, -0.0, 1.84, 4.29, 5.69, 6.18, 8.33, 8.05, 7.21, 6.8, 5.06, 7.15, -4.11, -4.84, -4.11, -0.0, 1.73, 4.94, 8.22, 11.97, 15.36, 16.51, 15.34, 11.97, 6.88, 6.96, 6.17, 5.93, 6.36, 7.1, 8.05, 7.1, 6.36, 4.19, 3.35, 2.88, 3.72, 4.81, 6.9, 9.13, 9.33, 6.36, 6.51, 4.74, 4.19, 4.19, 9.17, 9.17, 8.87, 8.87, 8.59, 8.51, 8.11, 8.78, 8.49, 9.14, 9.14, 9.49, 9.49, 9.77, 9.48, 9.84, 8.86, 7.29, 7.69, 9.01, 10.29, 10.11, 10.13, 10.77, 11.7, 12.29, 11.66, 10.74, 9.46, 7.9, 4.47, 2.32, 0.0, 0.0, 0.0, 6.71, 6.26, 3.48, 2.6, 3.47, 1.98, -0.0, -0.0, -0.0, -0.0, -0.0, -0.0, 5.37, 5.06, -0.0, -0.0, -0.0, -0.0, -0.0, 1.73, 3.4, 3.4, 3.8, 5.1, 8.05, 3.2, 3.2, 0.0, -3.0, -3.47, -3.22, -3.22, -3.47, -0.0, 1.95, 4.0, 8.38, 12.39, 15.27, 5.2, 6.57, 7.4, 6.45, 4.51, 4.6, 5.69, 6.0, 6.71, 6.2, 6.0, 4.11, 3.63, 2.8, 5.37, 7.13, 9.7, 9.75, 7.5, 4.82, 4.0, 3.79, 4.11, 4.11, 9.17, 9.17, 9.17, 8.87, 8.87, 8.51, 8.51, 8.78, 8.86, 9.14, 9.5, 9.49, 9.77, 9.77, 10.13, 9.84, 8.86, 7.99, 8.9, 10.65, 11.36, 10.13, 9.49, 9.49, 10.47, 11.67, 11.92, 11.58, 9.66, 6.95, 4.68, 2.12, 0.0, 2.4, 2.4, 4.11, 5.36, 4.92, 2.2, 1.84, 1.98, -0.0, -0.0, -0.0, -0.0, -0.0, -0.0, -0.0, -0.0, -0.0, -0.0, -0.0, -0.0, -0.0, -0.0, -0.0, -0.0, 2.26, 4.83, 5.58, 5.06, 0.0, 7.6, -2.26, -3.0, -1.14, -1.3, -2.12, -2.12, -0.0, 8.05, 8.05, -0.0, -0.0, 0.0, 1.22, 4.52, 6.34, 4.95, 4.08, 3.25, 5.03, 6.23, 6.71, 5.75, 4.74, 4.19, 5.06, 9.2, 10.68, 11.44, 7.6, 3.74, 3.32, 2.84, 2.68, 3.84, 3.84, 8.87, 8.87, 9.17, 8.87, 8.87, 8.51, 8.51, 8.78, 8.86, 9.14, 9.5, 9.79, 9.77, 9.77, 10.13, 9.49, 8.86, 8.64, 9.61, 11.05, 12.01, 11.66, 10.43, 9.21, 10.13, 11.03, 11.92, 11.8, 10.51, 9.82, 8.15, 7.67, 7.2, 6.4, 5.58, 6.0, 6.26, 5.81, 4.8, 3.79, 3.22, 2.8, 3.0, 2.32, 1.14, -0.0, 3.0, 3.0, 3.2, 2.4, 2.54, 2.4, -0.0, -0.0, -0.0, -0.0, -0.0, -0.0, 2.4, 4.74, 5.36, 0.0, -6.71, -3.72, -1.83, -1.84, -0.0, -0.0, -0.0, -0.0, 4.74, 0.0, 11.18, 4.11, 4.11, 3.48, 2.83, 4.65, 5.02, 3.76, 2.72, 1.39, 3.8, 7.2, 7.6, 5.95, 6.4, 8.0, 8.72, 5.59, 6.82, 4.73, 4.19, 3.58, 2.41, 3.48, 4.98, 4.98, 8.87, 8.87, 8.87, 9.17, 8.87, 8.87, 8.51, 9.16, 9.16, 9.5, 9.5, 9.79, 9.49, 9.49, 9.84, 9.22, 8.86, 8.75, 9.42, 11.05, 11.68, 12.31, 11.36, 10.74, 10.74, 10.94, 11.52, 11.8, 11.44, 11.37, 10.81, 10.0, 9.21, 8.22, 8.06, 7.89, 7.45, 7.15, 6.71, 5.6, 5.58, 4.74, 4.29, 4.02, 3.22, 2.6, 3.49, 4.11, 4.89, 4.89, 4.11, 3.4, 3.2, -0.0, -0.0, -0.0, -0.0, -4.11, 6.71, 6.71, 5.81, 0.0, -5.36, -2.48, -2.99, -2.99, -0.0, -0.0, -0.0, 6.71, 5.37, 5.37, 10.52, 10.18, 9.04, 6.7, 4.98, 4.92, 4.0, 3.82, 1.9, 0.0, 2.71, 4.6, 8.05, 3.4, 5.69, 5.69, 4.29, 1.98, 2.8, 5.69, 4.41, 3.84, 3.16, 4.19, 4.54, 4.54, 9.17, 9.17, 9.17, 8.87, 8.87, 8.87, 8.87, 9.16, 9.16, 9.5, 9.5, 9.79, 9.79, 9.49, 9.49, 9.5, 8.86, 8.75, 10.02, 10.74, 11.06, 11.66, 11.97, 12.02, 12.02, 11.58, 11.44, 11.72, 11.07, 10.88, 10.91, 10.8, 10.43, 9.66, 9.42, 8.73, 8.43, 8.49, 8.05, 7.5, 7.21, 7.06, 6.52, 6.52, 5.06, 4.74, 4.74, 4.89, 4.89, 4.54, 3.79, 3.48, -0.0, -0.0, -0.0, -0.0, -0.0, -0.0, 6.71, 0.0, 6.4, 6.4, 4.92, -1.27, -3.0, -2.17, -1.75, -0.0, -0.0, 6.71, 5.95, 7.15, 7.74, 11.62, 12.42, 10.25, 9.02, 5.75, 2.6, 0.0, 0.0, 0.0, 0.0, -9.6, -5.6, -0.0, 1.73, 2.82, 1.18, 1.03, 2.49, 5.06, 7.2, 5.46, 4.46, 3.84, 4.09, 4.09, 9.17, 9.17, 9.17, 9.17, 9.17, 8.87, 8.87, 8.87, 9.5, 9.5, 9.5, 9.5, 9.5, 9.79, 9.79, 9.5, 8.86, 9.14, 10.1, 10.74, 11.06, 11.37, 11.69, 12.28, 12.28, 12.16, 11.72, 11.62, 10.96, 10.68, 10.67, 10.4, 10.46, 10.6, 10.32, 10.02, 9.72, 9.79, 9.39, 8.94, 8.94, 8.49, 8.41, 7.2, 6.32, 5.93, 5.93, 5.59, 5.24, 4.89, 4.65, 2.73, -0.0, -1.41, -0.0, -0.0, -0.0, -0.0, -0.0, 0.0, 3.6, 6.4, 7.6, 1.84, -0.0, -0.0, -0.0, -0.0, 7.15, 5.06, 5.95, 6.08, 6.7, 8.6, 9.03, 9.09, 9.48, 9.6, 0.0, 0.0, 0.0, 0.0, -6.4, -10.52, -7.15, -5.58, -0.0, 1.18, 2.26, 2.26, 4.02, 5.37, 6.99, 7.37, 5.82, 4.09, 4.09, 4.09, 9.17, 9.17, 9.17, 9.17, 8.87, 8.87, 8.87, 9.17, 9.16, 9.5, 9.8, 9.5, 9.5, 9.79, 9.5, 8.86, 8.86, 9.14, 10.1, 10.44, 10.75, 11.05, 11.05, 11.97, 12.28, 12.16, 12.09, 11.62, 11.34, 10.68, 10.52, 10.4, 10.38, 10.18, 10.37, 10.05, 10.18, 9.81, 9.39, 9.39, 8.94, 8.94, 8.43, 7.81, 6.55, 6.55, 7.37, 6.8, 6.13, 5.36, 4.11, -0.0, -0.0, -3.48, -3.48, -2.6, -4.74, -4.74, -4.43, -6.71, 0.0, 6.8, 7.15, 5.95, 2.06, -0.0, 3.8, 0.0, 0.0, 3.4, 5.37, 7.2, 7.28, 6.01, 6.8, 7.6, 10.28, 0.0, 0.0, 0.0, 1.32, 0.0, -4.81, -10.4, -8.94, -7.6, -3.47, -0.0, 2.66, 3.68, 5.72, 6.64, 6.4, 7.53, 6.99, 5.82, 5.2, 5.2, 8.85, 8.85, 9.48, 9.17, 8.87, 8.58, 8.87, 9.17, 9.21, 9.5, 9.5, 9.8, 9.5, 9.5, 9.5, 8.86, 8.86, 9.5, 10.1, 10.44, 10.44, 11.05, 11.05, 11.63, 11.93, 11.88, 11.99, 11.62, 11.34, 11.33, 10.91, 10.94, 10.79, 10.52, 10.32, 10.05, 10.18, 9.81, 9.83, 9.83, 9.39, 8.94, 8.43, 7.37, 5.72, 5.72, 7.6, 7.81, 5.37, 4.74, -0.0, -0.0, -4.92, -4.92, -4.4, -3.16, -4.43, -4.74, -5.6, -6.71, 0.0, 6.32, 6.71, 5.69, 2.17, 2.06, 2.17, 0.0, -1.84, -2.4, 3.6, 7.89, 8.41, 7.07, 5.69, 6.2, 2.49, -1.73, 0.0, 1.41, 1.84, 3.47, 3.58, 0.0, 9.39, -0.0, -0.0, -0.0, 5.21, 5.81, 6.14, 6.14, 6.71, 7.31, 7.31, 7.4, 6.57, 6.57, 9.15, 9.15, 9.15, 9.17, 8.87, 9.17, 9.19, 9.5, 9.5, 9.5, 9.5, 9.5, 9.8, 9.8, 9.5, 9.16, 9.16, 9.5, 9.8, 10.43, 10.75, 11.05, 11.05, 11.05, 11.28, 11.52, 11.81, 11.72, 11.61, 11.33, 11.73, 11.47, 11.21, 11.03, 10.75, 10.49, 10.18, 10.26, 10.28, 9.83, 9.83, 9.39, 8.89, 7.97, 6.4, 7.06, 8.06, 7.15, 5.36, 3.48, 3.48, -0.0, -4.92, -4.92, -4.92, -4.66, -3.72, -4.0, -5.6, -6.26, 0.0, 5.06, 7.15, 3.6, 3.6, -0.0, -0.0, -6.32, -5.6, -3.4, 0.0, 6.8, 8.49, 10.68, 10.73, 9.21, 7.73, 3.15, 1.19, 3.49, 3.35, 5.78, 8.61, 13.39, 12.66, 6.0, 4.8, 5.26, 4.92, 6.71, 7.6, 8.05, 8.49, 7.6, 8.41, 8.41, 7.74, 7.74, 9.15, 9.15, 9.15, 8.85, 9.17, 9.48, 9.19, 9.5, 9.5, 9.5, 9.5, 9.5, 9.5, 9.5, 9.5, 9.16, 9.5, 9.21, 9.84, 10.43, 10.43, 10.43, 10.72, 10.72, 10.69, 11.23, 11.44, 11.16, 11.72, 12.25, 12.25, 12.13, 11.57, 11.3, 11.03, 10.93, 10.62, 10.26, 10.26, 10.28, 9.83, 9.83, 9.39, 8.44, 7.52, 8.05, 8.49, 6.71, 3.95, 3.51, 3.51, 4.02, 4.47, 4.92, -4.92, -3.48, -3.48, -3.79, -3.48, -5.81, 6.71, 5.37, 8.05, 8.05, 8.05, 7.6, -3.0, -5.37, 7.15, 0.0, 0.0, 0.0, 7.15, 10.66, 13.41, 13.59, 12.09, 8.24, 7.51, 6.9, 8.8, 7.58, 10.0, 13.41, 12.89, 10.96, 9.86, 6.22, 4.92, 4.47, 4.92, 4.92, 6.17, 7.5, 8.94, 8.94, 8.05, 8.05, 9.15, 9.15, 9.15, 9.13, 9.17, 9.48, 9.48, 9.5, 9.5, 9.5, 9.5, 9.5, 9.8, 9.5, 9.5, 9.16, 9.5, 9.5, 9.82, 10.42, 10.42, 10.43, 10.43, 10.72, 10.69, 10.94, 10.87, 10.68, 10.81, 11.33, 12.25, 12.25, 11.73, 11.3, 11.03, 10.75, 10.93, 10.62, 10.26, 10.25, 9.83, 9.83, 9.39, 8.94, 8.94, 9.34, 9.35, 8.05, 6.23, 5.78, 5.33, 4.92, 4.92, 4.92, 4.92, 4.47, -0.0, -0.0, -0.0, 5.81, 6.26, 7.6, 8.05, 6.8, 0.0, 7.6, 7.15, 7.6, 0.0, 3.4, 0.0, -7.15, 0.0, 9.83, 13.86, 15.15, 12.79, 9.3, 7.15, 9.21, 9.26, 9.83, 10.28, 11.31, 12.54, 13.05, 12.3, 11.04, 6.26, 5.81, 4.82, 5.26, 4.66, 4.85, 8.49, 8.94, 8.05, 8.05, 8.82, 8.82, 9.13, 9.13, 9.17, 9.48, 9.48, 9.48, 9.48, 9.19, 9.19, 9.5, 9.8, 9.8, 9.8, 9.16, 9.5, 10.12, 10.44, 10.73, 10.42, 10.12, 10.4, 10.4, 10.99, 10.94, 10.96, 11.05, 10.99, 11.41, 10.8, 10.67, 11.16, 11.3, 11.03, 10.8, 10.93, 10.49, 10.62, 10.25, 10.25, 9.81, 9.8, 9.35, 9.34, 9.35, 9.83, 8.94, 8.05, 7.15, 7.15, 6.71, 6.26, 5.81, 5.36, 4.47, 4.47, 4.47, 4.92, 4.92, 5.36, 7.15, 8.49, 7.6, 0.0, 0.0, 7.15, 7.15, 0.0, 6.01, 8.49, -0.0, 0.0, 7.51, 12.27, 15.15, 9.7, 7.63, 8.05, 9.39, 10.28, 10.62, 10.96, 11.4, 12.39, 12.91, 12.91, 12.02, 8.9, 7.15, 5.81, 4.98, 4.57, 3.45, 6.23, 8.49, 8.05, 8.05, 8.82, 8.82, 9.13, 9.13, 9.17, 9.48, 9.48, 9.48, 9.48, 9.48, 9.48, 9.19, 9.5, 9.5, 9.8, 9.8, 10.12, 10.76, 10.44, 10.12, 10.12, 10.12, 10.12, 10.36, 10.65, 10.7, 10.73, 11.09, 12.01, 11.72, 11.06, 10.65, 10.79, 11.03, 11.03, 10.8, 10.75, 10.49, 10.62, 10.18, 10.16, 9.72, 9.8, 9.79, 9.35, 9.79, 9.8, 9.36, 8.94, 8.49, 7.6, 6.71, 6.71, 5.78, 5.32, 4.92, 4.47, 4.02, 4.02, 4.02, 7.15, 7.6, 7.6, 7.6, 0.0, 0.0, 0.0, 0.0, 0.0, 0.0, 8.05, 4.2, 9.39, 7.33, 12.17, 14.42, 12.07, 10.46, 10.21, 10.84, 11.15, 11.15, 11.62, 11.62, 11.62, 12.52, 13.41, 13.39, 11.13, 8.94, 5.81, 5.81, 4.22, 3.07, 4.54, 7.89, 7.89, 7.89, 8.82, 8.82, 9.13, 9.13, 9.46, 9.17, 9.48, 9.48, 9.48, 9.48, 9.48, 9.48, 9.8, 9.5, 9.5, 9.8, 10.12, 10.44, 10.44, 9.8, 9.8, 10.09, 10.09, 10.39, 10.39, 10.65, 10.73, 11.42, 11.63, 11.72, 11.73, 11.06, 11.3, 11.03, 11.03, 10.75, 10.75, 10.49, 10.49, 10.18, 10.18, 9.72, 9.81, 9.8, 9.8, 9.8, 9.7, 9.26, 9.36, 8.91, 8.46, 8.01, 7.56, 7.11, 6.21, 5.75, 4.85, 4.34, 4.24, 4.0, 4.47, 7.6, 7.6, 7.6, 7.6, 0.0, 0.0, 0.0, -3.4, -3.4, 7.6, 8.94, 9.39, 10.96, 13.25, 13.28, 12.83, 11.92, 12.45, 12.58, 12.05, 12.05, 11.96, 12.39, 12.48, 13.86, 14.75, 12.88, 10.65, 6.71, 6.26, 5.09, 4.8, 3.14, 3.48, 4.56, 7.6, 7.6, 9.08, 9.08, 9.13, 9.13, 9.46, 9.46, 9.17, 9.17, 9.17, 9.17, 9.48, 9.48, 9.48, 9.8, 9.8, 9.5, 10.44, 10.11, 9.8, 9.8, 10.09, 10.09, 10.39, 10.39, 10.35, 10.41, 10.73, 11.05, 11.37, 11.46, 11.73, 11.57, 11.38, 11.09, 11.03, 10.8, 10.75, 10.49, 10.45, 10.16, 10.16, 9.72, 9.36, 9.81, 9.81, 10.25, 10.16, 9.72, 9.26, 9.26, 8.82, 8.46, 8.01, 7.56, 7.11, 6.64, 5.73, 5.26, 4.34, 4.24, 4.66, 4.92, 8.05, 7.15, 7.6, 8.49, 7.6, 0.0, -3.6, -5.37, -6.01, 7.6, 9.54, 9.79, 12.52, 12.07, 11.57, 12.39, 14.47, 15.55, 13.86, 11.59, 10.56, 10.41, 10.62, 11.18, 11.06, 9.29, 5.31, 6.26, 6.2, 5.6, 4.6, 3.22, 2.53, 2.16, 5.1, 5.1, 9.08, 9.08, 9.13, 9.13, 9.46, 9.46, 9.46, 9.46, 9.17, 9.17, 9.48, 9.77, 9.77, 10.09, 9.8, 9.8, 10.11, 9.8, 9.48, 9.48, 9.77, 10.06, 10.06, 10.35, 10.35, 10.41, 10.73, 11.05, 11.37, 11.3, 11.6, 11.57, 11.38, 11.38, 11.09, 11.23, 10.75, 10.93, 10.45, 10.6, 10.16, 9.81, 9.36, 8.94, 8.94, 9.81, 10.02, 10.02, 9.58, 9.11, 8.82, 8.38, 7.92, 7.45, 7.42, 6.94, 6.02, 5.51, 4.0, 4.77, 4.66, 4.66, 7.6, 7.15, 7.6, 8.49, 7.15, 0.0, 0.0, -3.4, -5.37, -7.6, 4.2, 9.6, 12.14, 12.52, 11.06, 12.27, 15.3, 15.85, 13.38, 9.83, 8.05, 8.05, 8.05, 8.05, 7.5, 4.87, 4.87, 5.81, 6.2, 5.37, 3.93, 4.0, 3.2, 3.16, 1.73, 1.58, 9.08, 9.08, 9.13, 9.13, 9.13, 9.46, 9.46, 9.46, 9.46, 9.46, 9.17, 9.77, 9.77, 10.09, 10.09, 9.8, 10.11, 9.48, 9.48, 9.17, 9.77, 9.72, 10.06, 10.35, 10.65, 10.41, 10.73, 11.05, 10.99, 11.3, 11.2, 11.47, 11.3, 11.09, 11.09, 11.23, 10.96, 10.93, 11.06, 10.62, 10.18, 9.72, 8.91, 8.49, 8.49, 10.28, 10.93, 10.25, 9.75, 9.33, 8.67, 8.24, 7.76, 7.33, 7.28, 6.79, 6.28, 5.34, 4.15, 4.57, 4.4, 4.77, 7.6, 6.71, 5.06, 5.69, 5.69, 0.0, 0.0, 0.0, -3.2, -8.05, -0.0, 9.33, 13.01, 12.51, 10.28, 10.61, 13.78, 14.99, 12.46, 9.36, 8.49, 7.15, 4.92, 4.41, 5.29, 5.31, 5.75, 5.81, 5.81, 5.4, 4.8, 5.64, 4.92, 4.47, 4.11, 1.73, 9.08, 9.08, 9.13, 9.13, 9.13, 9.46, 9.46, 9.46, 9.46, 9.46, 9.72, 9.72, 9.77, 9.77, 10.09, 9.8, 9.78, 9.8, 9.17, 9.17, 9.46, 9.72, 10.01, 10.01, 10.3, 10.06, 10.37, 10.68, 10.99, 10.91, 11.2, 11.06, 11.06, 10.79, 10.6, 10.8, 10.96, 10.96, 10.96, 10.52, 10.62, 10.16, 9.26, 8.33, 8.87, 10.63, 11.61, 10.32, 9.36, 8.82, 8.4, 7.98, 7.76, 7.33, 7.28, 6.79, 6.13, 4.93, 4.4, 4.4, 4.57, 4.4, 5.2, 6.8, 6.8, 6.8, 3.2, 2.26, 0.0, 0.0, 0.0, -7.6, 0.0, 9.83, 9.96, 10.6, 9.2, 8.94, 11.45, 11.99, 10.8, 9.54, 8.01, 6.71, 5.77, 5.75, 6.65, 6.65, 6.21, 6.21, 5.81, 5.75, 5.4, 6.94, 6.26, 5.36, 5.36, 4.11, 9.08, 9.08, 9.42, 9.13, 9.13, 9.13, 9.13, 9.46, 9.46, 9.46, 9.72, 9.72, 10.06, 9.77, 9.77, 9.78, 9.78, 9.8, 9.48, 9.13, 9.13, 9.66, 10.01, 10.01, 10.3, 10.59, 10.37, 10.68, 10.61, 10.91, 10.8, 10.8, 10.65, 10.79, 10.6, 10.8, 10.8, 10.96, 10.96, 10.52, 10.52, 10.05, 9.58, 8.82, 9.08, 10.92, 10.68, 8.72, 7.76, 7.89, 7.89, 7.89, 7.56, 7.14, 7.06, 6.64, 6.13, 5.05, 4.93, 4.4, 4.4, 4.22, 6.4, 6.4, 6.8, 6.8, 5.06, 3.6, 0.0, 0.0, 8.05, 0.0, 0.0, 0.0, 8.48, 8.05, 9.97, 9.8, 9.32, 8.94, 6.14, 6.26, 4.92, 7.12, 7.55, 7.6, 7.15, 7.15, 7.6, 7.6, 6.71, 6.26, 6.02, 7.47, 7.81, 7.15, 6.71, 6.71, 9.08, 9.08, 9.08, 9.42, 9.42, 9.13, 9.13, 9.13, 9.13, 9.46, 9.72, 9.72, 9.72, 10.06, 9.78, 9.78, 10.09, 9.48, 9.48, 9.15, 9.42, 9.42, 9.66, 9.94, 10.3, 10.37, 10.01, 10.31, 10.61, 10.91, 10.52, 10.8, 10.65, 10.24, 10.38, 10.6, 10.6, 10.37, 10.37, 10.52, 10.52, 10.05, 10.05, 9.83, 10.27, 11.09, 9.83, 7.76, 7.21, 6.79, 7.21, 7.71, 7.47, 7.47, 7.06, 6.94, 6.0, 5.43, 5.05, 4.46, 4.46, 3.84, 3.84, 5.37, 6.8, 6.8, 7.6, 6.8, 7.15, 7.6, 0.0, 0.0, -2.97, 0.0, 0.0, 8.49, 8.85, 10.35, 8.82, 7.42, 6.44, 6.4, 7.98, 9.83, 9.97, 9.33, 7.6, 7.15, 7.1, 8.0, 8.0, 7.11, 6.94, 7.63, 7.89, 8.06, 8.06, 8.06, 9.08, 9.08, 9.08, 9.08, 9.42, 9.42, 9.42, 9.42, 9.42, 9.13, 9.72, 9.72, 9.72, 9.72, 10.09, 10.09, 9.76, 9.48, 9.46, 9.15, 9.42, 9.08, 9.94, 9.94, 10.23, 10.01, 10.31, 10.31, 10.61, 10.24, 10.52, 10.4, 10.4, 10.24, 10.24, 10.38, 9.96, 10.18, 10.37, 10.37, 9.93, 9.93, 9.89, 9.89, 10.1, 10.52, 10.05, 8.71, 8.24, 7.76, 6.85, 6.85, 7.28, 7.06, 7.06, 6.94, 6.21, 5.82, 5.21, 4.84, 4.46, 4.46, 3.48, 6.32, 7.21, 7.6, 8.05, 8.05, 5.06, 7.6, 0.0, 0.0, -1.75, 0.0, 1.84, 6.32, 8.82, 9.79, 10.68, 10.23, 10.29, 10.81, 12.72, 12.81, 11.87, 10.41, 8.43, 6.71, 6.21, 6.94, 6.94, 6.94, 6.94, 8.0, 7.67, 8.3, 8.3, 8.3, 9.08, 9.08, 9.08, 9.08, 9.42, 9.42, 9.42, 9.42, 9.42, 9.42, 9.39, 9.72, 9.66, 9.76, 9.76, 9.76, 10.06, 9.46, 9.46, 9.15, 9.42, 9.37, 9.37, 9.59, 10.23, 10.01, 10.31, 10.31, 10.24, 10.24, 10.52, 10.52, 10.4, 10.24, 10.24, 10.24, 9.96, 9.96, 9.75, 9.75, 9.93, 9.93, 9.75, 9.68, 9.68, 9.68, 9.46, 8.97, 8.55, 8.06, 7.81, 7.33, 6.9, 6.64, 7.06, 6.8, 6.21, 5.82, 5.21, 5.21, 4.84, 4.12, 4.12, 4.19, 7.63, 8.05, 8.05, 6.4, 3.4, 7.6, 0.0, 0.0, 0.0, 0.0, 1.93, 5.21, 9.21, 9.83, 11.0, 11.6, 13.11, 14.91, 16.25, 15.11, 12.87, 10.75, 9.15, 8.45, 8.0, 6.45, 8.17, 6.02, 6.79, 7.6, 8.49, -0.0, -0.0, -0.0, 9.08, 9.08, 9.08, 9.08, 9.42, 9.42, 9.42, 9.42, 9.42, 9.42, 9.42, 9.72, 9.42, 9.71, 10.06, 10.06, 9.71, 9.46, 9.46, 8.82, 9.37, 9.37, 9.37, 9.66, 9.66, 9.66, 9.95, 9.95, 10.24, 10.4, 10.27, 10.27, 10.52, 10.11, 10.24, 9.83, 9.83, 9.72, 9.55, 9.55, 9.75, 9.75, 9.75, 9.75, 9.68, 9.68, 9.26, 8.76, 8.34, 8.34, 7.84, 7.63, 7.21, 7.14, 6.72, 6.54, 6.4, 6.21, 5.58, 5.21, 4.54, 4.46, 4.12, 4.12, 4.98, 8.49, 8.05, 7.15, 7.15, 0.0, 0.0, 0.0, 0.0, 0.0, 1.84, 4.2, 8.91, 10.28, 10.2, 9.38, 10.97, 14.78, 16.99, 15.52, 12.7, 10.75, 10.16, 10.28, 9.79, 9.29, 6.94, 4.82, 6.26, 2.26, -0.0, 1.25, 1.25, 1.25, 9.37, 9.37, 9.08, 9.08, 9.08, 9.08, 9.42, 9.42, 9.42, 9.42, 9.42, 9.66, 9.42, 9.71, 10.06, 9.71, 9.71, 9.12, 9.12, 8.82, 9.37, 9.37, 9.37, 9.66, 9.66, 9.66, 9.95, 10.13, 10.4, 10.02, 10.27, 10.27, 10.27, 10.11, 10.11, 10.33, 9.83, 9.83, 9.72, 9.32, 9.55, 9.55, 9.55, 9.13, 9.04, 9.04, 9.04, 8.52, 8.12, 8.12, 7.71, 7.43, 7.43, 7.43, 6.4, 6.25, 6.07, 5.82, 5.58, 5.58, 4.89, 4.11, 3.79, 4.12, 4.19, 8.06, 7.6, 6.8, 5.69, 2.4, 1.67, 0.0, 0.0, 0.0, 2.28, 6.64, 9.39, 9.83, 9.7, 6.95, 7.59, 12.94, 16.59, 15.63, 14.03, 12.21, 10.68, 9.83, 8.94, 5.36, 4.4, -0.0, -0.0, -0.0, 1.1, 3.0, 3.0, 3.0, 8.78, 8.78, 9.08, 9.08, 9.08, 9.08, 9.08, 9.08, 9.42, 9.42, 9.42, 9.66, 9.66, 9.71, 9.71, 9.71, 9.71, 9.37, 8.82, 8.82, 9.12, 9.37, 9.66, 9.66, 9.66, 9.66, 9.95, 10.13, 10.02, 10.02, 10.02, 10.27, 10.27, 10.11, 10.11, 10.11, 9.92, 9.83, 9.83, 9.32, 9.32, 9.32, 8.91, 9.13, 9.04, 9.04, 8.63, 8.63, 8.12, 8.12, 7.71, 7.71, 7.2, 7.2, 6.67, 6.13, 5.58, 5.69, 5.46, 4.81, 4.81, 4.11, 3.79, 3.48, 3.48, 7.2, 6.8, 6.8, 7.2, 6.8, 3.8, 0.0, 0.0, 0.0, 0.0, 6.64, 8.4, 9.39, 8.72, 6.64, 6.95, 9.97, 13.46, 13.85, 14.06, 12.58, 9.6, 6.26, 5.01, 2.76, -0.0, -1.05, -0.0, 1.23, 3.45, 5.59, 5.59, 5.59, 8.45, 8.45, 8.73, 8.45, 9.08, 9.08, 9.08, 9.08, 9.42, 9.42, 9.42, 9.42, 9.08, 9.37, 9.71, 9.71, 9.71, 9.08, 8.82, 8.82, 9.12, 9.37, 9.66, 9.66, 9.66, 9.66, 9.95, 9.76, 10.02, 10.02, 10.02, 10.27, 10.27, 9.88, 10.11, 10.11, 9.71, 9.6, 9.6, 9.2, 9.07, 9.07, 9.32, 8.8, 8.8, 8.8, 8.4, 8.4, 8.27, 7.87, 7.48, 7.48, 7.34, 6.95, 6.41, 6.52, 5.95, 5.58, 5.01, 4.75, 4.81, 4.11, 3.79, 3.48, 3.07, 4.74, 6.0, 7.15, 7.6, 8.05, 7.6, 4.96, 0.0, 0.0, 0.0, 0.0, 6.32, 8.94, 6.32, 5.36, 6.32, 7.21, 7.72, 10.92, 13.16, 12.93, 4.8, 1.19, 0.81, 1.41, 0.82, -0.0, -0.0, 1.84, 5.21, 6.58, 6.58, 6.58, 8.73, 8.73, 8.73, 8.73, 8.78, 9.08, 9.08, 9.08, 9.42, 9.42, 9.08, 9.37, 9.37, 9.37, 9.71, 9.71, 9.08, 9.08, 8.82, 9.12, 9.37, 9.66, 9.66, 9.66, 9.66, 9.66, 9.95, 9.58, 9.76, 10.02, 10.02, 10.02, 9.88, 9.88, 9.88, 9.48, 9.71, 9.71, 9.6, 9.2, 9.07, 9.07, 9.07, 8.54, 8.54, 8.15, 8.0, 8.0, 8.0, 7.61, 7.87, 7.48, 7.48, 6.95, 6.79, 6.23, 5.86, 5.65, 5.05, 4.75, 4.11, 4.11, 3.43, 3.79, 3.07, 3.47, 2.8, 4.74, 5.06, 6.8, 7.63, 8.06, 7.44, 0.0, 0.0, 0.0, 0.0, 8.49, -0.0, 4.71, 6.01, 6.01, 5.59, 8.72, 13.67, 10.96, 4.11, -0.88, -0.73, 0.76, 1.72, 2.12, 2.4, 5.09, 5.81, 5.81, 5.81, 5.81, 8.73, 8.73, 8.73, 8.73, 8.78, 9.08, 9.08, 9.08, 9.08, 9.08, 9.37, 9.37, 9.37, 9.37, 9.71, 9.37, 9.08, 9.08, 9.08, 9.37, 9.02, 9.02, 9.66, 9.66, 9.66, 9.66, 9.3, 9.58, 9.58, 9.76, 10.02, 9.63, 9.63, 9.88, 9.88, 9.48, 9.48, 9.48, 9.6, 9.2, 8.82, 8.82, 9.07, 8.54, 8.54, 8.15, 8.0, 8.0, 8.0, 7.61, 7.61, 7.23, 7.07, 7.07, 6.51, 6.59, 6.23, 5.65, 5.05, 4.74, 4.11, 4.11, 3.43, 3.43, 3.43, 3.35, 3.0, 0.0, 0.0, 0.0, 0.0, 5.69, 8.67, 7.44, 0.0, 0.0, -3.8, -8.49, -6.01, -0.0, 4.71, 5.1, 6.44, 8.6, 15.62, 12.96, 6.32, -1.6, -2.23, -0.0, 2.6, 5.37, 5.6, 4.92, 4.92, 5.2, 5.2, 5.2, 8.73, 8.73, 8.73, 8.73, 8.45, 8.78, 9.08, 9.08, 9.08, 9.37, 9.37, 9.37, 9.37, 9.37, 9.37, 9.08, 9.08, 9.08, 9.37, 9.02, 9.02, 9.02, 9.66, 9.66, 9.66, 9.66, 9.3, 9.58, 9.58, 9.76, 9.76, 10.02, 9.63, 9.63, 9.63, 9.88, 9.48, 9.35, 9.35, 8.96, 8.96, 8.82, 8.43, 8.27, 8.27, 7.9, 8.0, 8.0, 8.0, 7.81, 7.44, 7.44, 7.07, 7.07, 6.51, 6.28, 5.93, 5.68, 5.06, 5.05, 4.43, 3.78, 4.11, 3.72, 3.72, 3.22, 3.72, 1.98, 0.0, 0.0, -1.4, 0.0, 3.6, 6.01, 4.96, 0.0, -6.01, -8.49, -7.6, -6.01, -0.0, 4.71, 6.44, 14.71, 16.54, 14.3, 9.97, -4.4, -3.58, -4.02, -0.0, 5.95, 6.51, 4.92, 2.48, -0.0, -0.0, -0.0, 8.73, 8.73, 8.73, 8.73, 8.73, 8.45, 8.78, 8.78, 8.78, 9.02, 9.37, 9.37, 9.37, 9.37, 9.37, 9.08, 9.08, 9.08, 9.37, 9.37, 9.37, 9.37, 9.66, 9.66, 9.66, 9.3, 9.3, 9.3, 9.3, 9.58, 9.76, 9.76, 10.02, 9.63, 9.63, 9.63, 9.63, 9.35, 9.35, 9.35, 8.82, 8.82, 8.43, 8.27, 8.27, 7.9, 7.72, 7.35, 7.51, 7.51, 7.44, 7.44, 7.07, 7.07, 6.87, 6.28, 5.93, 5.68, 5.06, 4.74, 4.42, 4.43, 4.07, 3.64, 4.01, 3.64, 3.38, 3.72, 3.97, 0.0, 0.0, 0.0, 0.0, 1.4, 0.0, 0.0, -6.01, -8.05, -8.49, -5.69, -0.0, 3.6, 8.17, 13.67, 15.51, 13.81, 10.73, -6.4, -2.53, -1.98, 4.47, 2.26, 3.4, -0.0, -0.81, -0.0, -0.0, -0.0, 8.73, 8.73, 8.73, 8.45, 8.73, 8.73, 8.45, 8.78, 8.78, 9.02, 9.37, 9.08, 9.42, 9.71, 9.08, 9.08, 9.08, 9.08, 9.37, 9.37, 9.37, 9.37, 9.37, 9.3, 9.3, 9.3, 9.3, 9.3, 9.3, 9.3, 9.58, 9.76, 9.76, 9.38, 9.63, 9.63, 9.63, 9.48, 9.1, 8.96, 8.82, 8.82, 8.43, 8.0, 8.27, 7.9, 7.72, 7.72, 7.15, 7.51, 7.15, 7.15, 7.07, 6.87, 6.87, 6.28, 6.28, 5.68, 5.37, 5.06, 4.42, 4.42, 4.07, 4.07, 4.36, 4.74, 4.36, 3.72, 5.06, 5.06, 4.46, 2.54, 0.0, 0.0, 0.0, 0.0, -1.95, -5.69, -8.49, -8.05, 8.05, -0.0, 6.23, 10.6, 12.51, 10.91, 8.49, -3.79, -2.53, -3.35, -4.11, -0.0, -1.32, -1.98, -0.82, -0.61, -0.61, -0.61, 8.73, 8.73, 8.45, 8.45, 8.45, 8.45, 8.45, 8.78, 9.02, 9.37, 9.37, 9.08, 9.37, 9.37, 9.37, 9.08, 9.08, 9.08, 9.08, 9.37, 9.37, 9.37, 9.37, 9.37, 9.3, 9.3, 9.3, 9.3, 9.3, 9.3, 9.3, 9.58, 9.58, 9.76, 9.38, 9.38, 9.63, 9.48, 9.1, 9.1, 8.55, 8.82, 8.27, 8.27, 8.0, 7.9, 7.72, 7.72, 7.72, 7.51, 7.51, 7.15, 7.23, 6.87, 6.87, 6.28, 6.28, 5.68, 5.37, 5.06, 4.71, 4.71, 4.02, 4.36, 4.36, 4.74, 4.74, 4.74, 4.43, 6.32, 6.8, 8.05, 8.49, 0.0, 0.0, 0.0, 0.0, -2.06, -4.0, 0.0, 0.0, 7.6, 5.81, 8.38, 10.66, 9.77, 7.15, -2.0, -2.21, -4.02, -3.22, -1.96, -1.75, -1.84, -0.76, -0.82, -0.82, -0.82, 8.19, 8.19, 8.19, 8.19, 8.45, 8.45, 8.78, 9.02, 9.37, 9.37, 9.37, 9.37, 9.37, 9.37, 9.37, 9.08, 9.08, 9.08, 9.08, 9.37, 9.37, 9.59, 9.59, 9.37, 9.37, 9.02, 9.3, 9.3, 9.3, 9.3, 9.3, 9.3, 9.58, 9.58, 9.58, 9.21, 9.21, 9.21, 9.1, 9.1, 8.55, 8.55, 8.65, 8.27, 8.0, 8.27, 7.72, 7.72, 7.72, 7.51, 7.15, 6.92, 6.92, 6.57, 6.57, 6.31, 5.98, 5.69, 5.68, 5.37, 4.71, 4.71, 4.29, 4.65, 4.65, 5.06, 5.06, 5.06, 4.29, 3.97, 3.4, 5.37, 0.0, 7.6, -3.4, 0.0, 1.95, 0.0, 0.0, 0.0, 0.0, 3.4, 6.32, 6.58, 9.39, 9.39, 7.15, 3.93, 1.55, 5.36, -2.6, -2.4, -1.01, -1.01, -1.01, -0.94, -0.94, -0.94, 8.19, 8.19, 8.19, 8.19, 8.45, 8.45, 8.78, 9.08, 9.08, 9.08, 9.08, 9.08, 9.37, 9.08, 9.08, 9.42, 9.42, 9.08, 9.08, 9.08, 9.42, 9.94, 9.94, 9.37, 9.37, 9.02, 9.02, 9.02, 9.3, 9.3, 9.3, 9.3, 9.3, 9.3, 9.58, 9.21, 9.21, 9.21, 9.21, 8.65, 8.93, 8.55, 8.37, 8.0, 8.0, 8.0, 8.27, 7.72, 7.72, 7.51, 7.15, 6.92, 6.92, 6.92, 6.57, 6.31, 5.98, 5.69, 6.01, 5.37, 4.71, 4.71, 4.71, 4.65, 4.65, 4.65, 5.06, 5.06, 5.06, 3.97, 2.26, 0.0, 0.0, -3.2, -2.4, 0.0, 1.95, 3.6, 0.0, -2.06, 0.0, 0.0, 4.71, 6.13, 8.87, 10.28, 9.83, 6.65, 6.2, 6.26, 4.11, -1.73, -1.49, -1.32, -1.2, -1.05, -1.05, -1.05, 8.19, 8.19, 8.19, 8.19, 8.45, 8.78, 8.78, 8.82, 9.08, 9.08, 9.08, 9.42, 9.42, 9.42, 9.42, 9.42, 9.42, 9.42, 9.42, 9.42, 9.66, 9.66, 9.66, 9.94, 9.37, 9.37, 9.02, 9.02, 9.02, 9.02, 9.3, 9.3, 9.3, 8.94, 8.94, 9.21, 9.21, 9.21, 9.21, 8.84, 8.65, 8.29, 8.37, 8.37, 8.37, 8.0, 8.0, 8.09, 7.72, 7.51, 7.51, 6.92, 6.92, 6.92, 6.57, 6.31, 5.98, 5.69, 5.69, 5.37, 5.0, 5.0, 4.71, 4.65, 4.65, 4.65, 5.06, 5.37, 5.37, 4.47, 2.32, 0.0, 0.0, 0.0, 0.0, 0.0, 0.0, 2.54, 8.05, -3.8, -2.69, 0.0, 3.8, 6.9, 9.11, 11.13, 11.18, 9.39, 8.49, 8.05, 7.6, 7.07, -0.0, -0.0, -0.0, -0.0, -0.0, -0.0, 8.19, 8.19, 8.19, 8.19, 8.5, 8.5, 8.5, 8.82, 9.08, 9.08, 9.08, 9.42, 9.42, 9.66, 9.66, 9.42, 9.42, 9.42, 9.42, 9.42, 9.66, 9.66, 9.66, 9.66, 9.37, 9.37, 9.37, 9.02, 9.02, 9.02, 9.02, 9.3, 8.94, 8.94, 8.94, 8.94, 9.21, 9.21, 9.21, 8.65, 8.65, 8.65, 8.08, 8.37, 8.37, 8.37, 8.0, 8.09, 7.72, 7.51, 7.51, 6.92, 6.92, 6.92, 6.31, 6.31, 6.31, 5.69, 5.69, 5.69, 5.0, 5.0, 5.0, 4.95, 4.95, 4.95, 5.37, 5.37, 5.69, 4.75, 3.45, 2.4, 0.0, 7.6, 6.71, 0.0, 0.0, 8.05, 8.05, -8.05, -3.8, 0.0, 2.06, 5.69, 8.37, 11.13, 11.62, 10.68, 9.68, 9.79, 8.89, 8.06, 4.6, 2.06, -0.0, -0.0, -0.0, -0.0, 8.19, 8.19, 7.9, 8.22, 8.5, 8.5, 8.5, 8.5, 8.82, 9.08, 9.08, 9.42, 9.42, 9.66, 9.66, 9.66, 9.42, 9.42, 9.42, 9.42, 9.66, 9.66, 9.66, 9.66, 9.08, 9.37, 9.37, 9.02, 8.78, 8.78, 8.78, 9.08, 8.73, 8.73, 8.94, 8.94, 9.21, 9.21, 8.84, 8.65, 8.93, 8.93, 8.73, 8.73, 8.37, 8.37, 8.27, 8.09, 8.09, 7.51, 7.27, 7.27, 6.92, 6.92, 6.98, 6.63, 6.63, 6.01, 6.01, 5.69, 5.3, 5.0, 5.0, 4.56, 4.95, 4.95, 4.42, 5.15, 5.15, 4.75, 3.45, 2.6, 2.98, 7.6, 6.26, -7.15, -6.4, -7.6, 7.6, 0.0, 0.0, 0.0, 1.58, 5.03, 7.81, 10.23, 10.73, 10.24, 9.68, 9.21, 8.91, 7.07, 5.44, 3.8, 2.98, 1.2, 1.2, 1.2, 8.19, 8.19, 7.9, 8.22, 8.5, 8.5, 8.5, 8.5, 8.82, 9.08, 9.08, 9.42, 9.42, 9.66, 9.66, 9.66, 9.42, 9.42, 9.42, 9.42, 9.66, 9.66, 9.66, 9.66, 9.08, 9.37, 9.37, 9.02, 8.78, 8.78, 8.78, 9.08, 8.73, 8.73, 8.94, 8.94, 9.21, 9.21, 8.84, 8.65, 8.93, 8.93, 8.73, 8.73, 8.37, 8.37, 8.27, 8.09, 8.09, 7.51, 7.27, 7.27, 6.92, 6.92, 6.98, 6.63, 6.63, 6.01, 6.01, 5.69, 5.3, 5.0, 5.0, 4.56, 4.95, 4.95, 4.42, 5.15, 5.15, 4.75, 3.45, 2.6, 2.98, 7.6, 6.26, -7.15, -7.6, -7.6, 7.6, 0.0, 0.0, 0.0, 2.99, 5.03, 6.7, 8.73, 9.39, 9.8, 9.7, 9.49, 9.24, 7.81, 6.01, 4.94, 4.21, 3.35, 3.35, 3.35]}, {"header": {"dx": 0.06612293990616946, "dy": 0.0552356325346848, "nx": 98, "ny": 59, "la1": 35.046912555036876, "la2": 31.78801023549047, "lo1": -121.43107172385933, "lo2": -114.95102361305473, "refTime": "2026040804", "parameterCategory": 1, "parameterNumber": 3}, "data": [-11.58, -11.58, -11.33, -11.33, -11.33, -11.06, -11.06, -11.39, -11.45, -11.52, -11.39, -9.3, -10.04, -7.59, 0.0, -6.64, -7.81, -7.89, -6.4, -6.08, -5.37, -5.69, -5.24, -4.74, -5.36, -5.01, -5.01, -5.6, -5.6, -5.6, -6.51, -5.81, -5.36, -5.09, -4.46, -3.22, -2.32, -2.49, -3.0, -4.74, -5.72, -6.9, -7.87, -7.59, -8.15, -7.63, -9.52, -10.13, -10.38, -8.06, -6.33, -1.84, 7.27, 8.82, 6.95, 6.3, 5.1, 4.6, 3.25, 2.1, 2.1, 1.02, 1.09, 1.16, 1.47, 1.14, 1.84, 1.84, 1.84, 1.84, 1.84, 1.91, 1.92, 1.02, 2.13, 1.93, 2.1, 1.91, 1.29, 3.96, 6.42, 5.49, 5.2, 4.47, 3.51, 3.51, 4.92, 6.26, 6.26, 5.2, 3.6, 1.93, 0.0, 0.0, 2.06, 2.06, 1.76, 1.72, -11.23, -11.58, -11.33, -11.33, -11.33, -11.06, -11.4, -11.4, -11.39, -11.8, -11.42, -11.6, -8.22, -5.95, 0.0, 0.0, -8.0, -8.8, -7.89, -5.58, -5.69, -6.01, -5.69, -6.08, -4.74, -5.36, -5.36, -5.36, -5.36, -5.75, -6.23, -6.07, -5.81, -5.81, -4.11, -2.8, -2.66, -2.66, -2.66, -3.91, -5.69, -7.87, -8.59, -10.12, -10.92, -12.01, -12.81, -12.3, -10.61, -7.79, -5.0, 4.6, 8.23, 6.95, 6.95, 6.58, 5.1, 4.6, 3.25, 1.92, 0.93, 0.93, 1.09, 1.16, 1.26, 2.21, 2.33, 2.17, 2.04, 1.84, 2.82, 1.91, 2.0, 0.93, 0.89, 1.75, 1.84, 1.91, 1.29, 3.96, 6.42, 5.49, 5.2, 4.47, 3.51, 3.51, 4.92, 6.26, 6.26, 5.2, 3.6, 1.93, 0.0, 0.0, 2.06, 2.06, 1.76, 1.72, -11.23, -11.58, -11.58, -11.33, -11.33, -11.33, -11.68, -11.68, -12.0, -11.79, -10.87, -9.36, -9.97, -7.9, -3.11, 0.0, -9.83, -9.54, -9.33, -8.3, -5.58, -6.28, -6.98, -6.01, -6.44, -4.74, -4.74, -4.74, -5.36, -6.13, -6.52, -6.13, -6.0, -7.15, -5.6, -4.22, -2.66, -2.4, -3.8, -4.96, -7.47, -9.67, -12.03, -14.37, -15.7, -15.53, -15.14, -13.43, -8.46, -6.24, 3.11, 7.87, 6.95, 6.14, 6.64, 6.95, 4.88, 4.6, 2.95, 1.84, 0.85, 0.0, 1.09, 1.16, 2.83, 3.8, 3.7, 3.25, 3.08, 2.94, 2.93, 2.81, 1.84, 0.89, 0.0, 0.0, 0.0, 1.97, 1.25, 2.2, 5.29, 5.69, 5.93, 6.17, 3.97, 4.02, 4.92, 6.26, 5.7, 6.44, 3.98, 2.28, 0.0, 0.0, 0.0, 2.1, 2.32, 1.84, -10.99, -11.23, -11.58, -11.58, -11.33, -11.33, -11.68, -11.93, -11.64, -11.63, -10.65, -9.74, -10.4, -8.82, -7.27, -5.7, -7.27, -10.18, -10.73, -9.46, -6.7, -6.08, -6.98, -6.64, -6.32, -5.1, -3.68, -4.02, -5.36, -6.08, -7.2, -7.44, -7.07, -7.6, -7.6, -5.69, -5.1, -5.06, -5.7, -7.72, -10.65, -13.7, -15.1, -14.73, -13.7, -12.63, -10.75, -6.83, -4.83, 2.17, 6.01, 5.86, 5.86, 5.86, 7.33, 6.3, 4.88, 3.45, 2.02, 0.93, 0.0, 0.0, 1.09, 3.11, 4.96, 4.66, 4.4, 4.6, 4.81, 4.81, 4.08, 3.09, 2.09, 0.0, 0.0, -1.05, -1.93, -0.96, 0.0, 2.2, 4.37, 3.63, 5.59, 5.81, 3.95, 4.85, 5.81, 5.7, 5.36, 6.44, 4.65, 4.32, 2.19, 2.6, 6.01, 5.36, 3.91, 3.72, -10.99, -11.23, -11.58, -11.58, -11.33, -11.33, -11.63, -11.93, -11.88, -11.63, -10.52, -9.74, -10.6, -9.2, -8.23, -7.59, -7.59, -9.3, -11.18, -11.06, -8.82, -5.69, -5.69, -5.59, -5.2, -5.86, -5.1, -5.69, -7.2, -7.06, -7.89, -8.79, -9.2, -9.66, -9.83, -9.46, -9.2, -8.82, -10.65, -13.01, -13.36, -12.4, -10.82, -7.51, -6.4, -3.92, -2.49, 0.0, 1.75, 3.8, 4.96, 4.96, 5.59, 6.64, 6.64, 6.3, 3.87, 3.45, 2.02, 0.85, 0.0, 0.0, 3.11, 6.14, 5.46, 4.4, 3.11, 3.3, 4.36, 4.99, 4.08, 3.07, 2.8, 2.15, 0.0, -1.0, -3.8, -2.28, 0.0, 2.06, 1.83, 2.53, 5.4, 7.06, 4.57, 4.98, 5.36, 7.2, 8.22, 7.44, 7.51, 6.44, 7.59, 6.07, 6.26, 5.94, 4.43, 4.96, -10.99, -10.99, -11.23, -11.33, -11.33, -11.33, -11.93, -11.58, -11.88, -11.82, -10.65, -9.49, -9.6, -5.7, -7.59, -7.59, -8.93, -10.4, -10.79, -12.07, -10.62, -7.41, -7.13, -6.01, -5.59, -6.64, -7.21, -7.67, -8.3, -9.21, -8.49, -8.94, -8.67, -10.45, -12.05, -11.6, -11.33, -11.42, -11.95, -13.46, -13.13, -10.79, -6.98, -3.07, -1.16, 0.0, 0.0, 0.0, 1.16, 2.58, 2.97, 4.0, 5.59, 5.86, 5.86, 3.87, 3.45, 2.39, 1.93, 0.0, 0.0, 1.39, 5.06, 5.21, 4.0, 3.99, 3.11, 3.52, 3.35, 2.95, 1.9, 2.9, 3.09, 4.03, 2.07, 0.0, -2.83, -2.8, 0.0, 1.54, 0.0, 1.52, 6.26, 7.06, 5.72, 5.69, 7.2, 11.62, 10.12, 11.99, 10.6, 10.41, 8.4, 6.71, 6.71, 6.0, 5.37, 6.95, -10.99, -10.99, -10.99, -11.33, -11.33, -11.58, -11.58, -11.8, -11.81, -11.94, -10.8, -8.95, -7.27, -2.49, -2.82, -5.95, -7.9, -9.66, -10.48, -11.87, -12.96, -10.62, -8.94, -10.66, -10.04, -9.38, -10.21, -10.18, -10.05, -8.37, -9.54, -8.94, -9.21, -8.41, -10.73, -12.07, -12.41, -11.2, -9.76, -10.62, -12.33, -11.61, -11.5, -9.96, -7.82, -4.99, -3.04, -0.97, 0.0, 0.0, 0.0, 1.84, 4.83, 4.83, 4.2, 2.58, 2.58, 2.39, 0.98, 0.0, 0.0, 1.33, 3.49, 4.0, 3.17, 3.14, 3.11, 2.46, 1.25, 0.99, 0.97, 0.97, 0.93, 0.95, 0.95, 0.0, 0.0, 0.0, 0.0, 0.0, 0.0, 0.0, 7.6, 6.32, 4.6, 2.6, -0.0, -0.0, 13.86, 12.96, 12.07, 12.07, 6.71, 7.15, 7.08, 6.0, 6.01, 6.64, -10.65, -10.99, -10.99, -10.99, -11.03, -11.28, -11.8, -11.8, -11.81, -11.85, -10.27, -9.33, -8.23, -6.71, -4.48, -2.6, -5.98, -8.01, -8.85, -9.17, -6.67, -4.65, -10.52, -7.98, -12.39, -12.38, -12.18, -11.39, -10.16, -9.09, -9.2, -10.96, -11.18, -10.18, -10.41, -11.96, -12.05, -10.89, -9.46, -8.73, -10.68, -10.84, -12.51, -12.79, -11.77, -9.3, -5.49, -3.65, -1.76, -2.6, -1.54, 0.0, 4.4, 5.06, 4.4, 4.4, 3.87, 2.39, 0.98, 0.98, 1.04, 1.33, 1.84, 2.54, 3.4, 3.17, 2.7, 0.99, 0.0, 0.0, 0.0, 0.0, 0.0, -0.86, -1.77, -0.78, 1.13, 2.37, 0.0, -2.02, 0.0, 3.82, 9.39, 7.81, 2.6, -0.0, -0.0, -0.0, -0.0, -0.0, 7.9, 4.8, 5.94, 7.15, 7.08, 6.0, 6.28, 6.01, -10.39, -10.99, -10.99, -10.99, -11.58, -11.28, -11.52, -12.09, -12.21, -11.6, -10.79, -11.03, -12.58, -12.04, -10.61, -8.85, -9.17, -9.17, -9.17, -7.51, -3.04, 0.0, 0.0, -6.21, -8.49, -9.33, -8.4, -8.58, -9.08, -9.86, -11.35, -12.91, -13.86, -13.59, -11.45, -10.35, -10.91, -10.66, -8.79, -8.8, -9.75, -10.18, -11.76, -10.7, -9.11, -8.63, -9.75, -7.64, -5.49, -4.2, -4.05, 0.0, 4.2, 6.14, 5.21, 4.66, 3.3, 3.25, 2.02, 0.93, 0.93, 1.11, 0.0, 3.0, 4.14, 4.21, 2.47, 1.6, 0.0, -1.14, -0.89, -0.78, -1.77, -2.22, -1.48, -0.82, 0.0, 0.0, 0.0, -2.72, 0.0, 8.58, 9.64, 8.49, 8.91, 2.49, -0.0, -0.0, -0.0, 2.39, 3.49, 3.84, 4.46, 6.36, 6.71, 5.6, 6.28, 5.03, -10.39, -10.65, -10.99, -10.94, -11.28, -11.28, -11.8, -12.09, -12.5, -11.6, -11.47, -11.73, -11.03, -12.89, -13.32, -12.52, -12.79, -13.19, -13.99, -12.56, -12.58, -11.92, -10.82, -8.38, -9.55, -7.5, -6.32, -7.81, -10.59, -11.21, -12.47, -14.3, -14.3, -12.52, -11.18, -9.89, -6.98, -6.8, -6.99, -6.99, -7.71, -8.19, -7.4, -6.4, 0.0, -7.15, -7.08, -7.71, -7.67, -6.32, -3.32, 2.17, 5.63, 5.21, 5.21, 4.4, 3.39, 2.19, 1.01, 0.0, 0.0, 0.0, 1.58, 5.37, 5.31, 4.21, 2.7, 2.28, 1.14, -1.67, -2.06, -2.6, -2.37, -2.28, -1.52, -1.43, -1.67, -2.17, -4.15, -4.38, -2.65, 4.01, 11.99, 7.21, 6.61, 7.01, 5.69, 3.8, 2.99, 2.6, 2.98, 3.16, 4.54, 5.37, 6.71, 6.23, 5.69, 5.06, -10.39, -10.65, -10.99, -10.94, -11.52, -11.52, -11.8, -12.17, -12.5, -12.13, -11.46, -12.26, -11.72, -12.39, -13.57, -13.72, -14.75, -14.84, -15.02, -16.52, -17.22, -17.33, -16.41, -13.94, -11.98, -7.5, -7.37, -8.34, -11.12, -13.15, -12.96, -12.04, -9.83, -10.16, -11.08, -10.73, -9.8, -7.28, -6.0, -6.4, -6.94, -6.26, 0.0, 7.6, 7.6, 5.06, -0.0, -7.81, -8.49, -8.49, -8.94, 4.0, 4.0, 4.0, 3.7, 3.61, 2.28, 1.09, 0.0, 0.0, 0.0, 1.32, 4.83, 6.98, 7.07, 4.94, 4.78, 3.49, 1.95, -1.14, -3.3, -4.13, -4.17, -3.16, -2.31, -2.6, -3.65, -4.2, -5.9, -7.18, -5.31, 2.21, 10.75, 11.26, 5.59, 6.71, 7.5, 6.13, 4.43, 2.73, 2.48, 2.48, 3.07, 4.11, 6.51, 6.79, 5.95, 5.06, -10.39, -10.39, -10.65, -10.94, -11.52, -11.52, -11.88, -12.27, -12.5, -11.85, -11.72, -11.99, -12.17, -11.6, -10.73, -10.79, -11.2, -13.93, -15.33, -15.97, -14.54, -12.97, -12.05, -12.52, -7.6, -6.26, -6.07, -2.53, -4.65, -5.94, -7.6, -6.26, -5.94, -5.09, -7.92, -9.39, -8.38, -7.5, -7.6, -0.0, 5.37, 3.4, 6.71, 7.6, 7.6, 3.0, 2.4, -0.0, -0.0, -3.8, -6.8, -8.05, 0.0, 0.0, 1.32, 1.2, 2.23, 1.2, 0.0, -1.45, 0.0, 6.01, 7.67, 8.82, 7.89, 6.32, 5.69, 4.72, 2.33, 0.0, -2.23, -3.98, -4.2, -4.0, -3.81, -3.98, -4.36, -5.98, -7.06, -8.24, -4.81, 4.48, 7.82, 11.33, 9.32, 6.88, 7.97, 8.41, 6.8, 4.54, 3.07, 3.07, 3.16, 3.79, 5.21, 6.71, 6.4, 6.79, -10.11, -10.39, -10.65, -10.94, -11.28, -11.52, -11.88, -12.21, -12.5, -12.11, -11.82, -12.09, -12.47, -12.24, -11.73, -10.75, -10.86, -10.61, -11.95, -12.53, -11.31, -8.76, -7.2, -4.43, -2.53, -2.73, -2.73, 5.36, 6.07, -0.0, -2.6, -0.0, 4.11, -0.0, -5.81, -5.94, -4.74, -0.0, -0.0, -0.0, -2.4, -4.74, -6.26, -5.64, -6.26, -5.2, -4.43, -5.06, -6.08, -6.8, -6.36, -7.06, -7.01, -5.72, -4.96, -4.2, 0.0, 2.02, 2.28, 0.0, 8.49, 8.94, 8.94, 8.49, 8.33, 6.08, 4.47, 5.1, 4.4, 3.19, 1.52, 0.0, -1.47, -2.54, -3.35, -4.8, -5.54, -5.7, -6.87, -5.52, 0.0, 3.8, 1.84, 2.2, 7.82, 8.85, 8.38, 7.31, 7.6, 7.15, 5.81, 4.15, 3.6, 4.22, 5.58, 5.6, 6.71, 6.71, -10.11, -10.39, -10.09, -10.94, -11.28, -11.23, -11.81, -12.21, -12.21, -12.21, -11.9, -12.09, -12.17, -12.24, -12.03, -11.03, -10.6, -10.31, -10.98, -11.3, -10.41, -8.53, -5.78, -3.06, -2.94, -3.51, -2.83, 0.0, 5.51, 5.01, 2.8, -0.0, -0.0, -0.0, 4.43, 4.43, 3.47, 2.26, -0.0, -2.26, -5.06, -6.23, -6.71, -8.05, -7.15, -5.81, -4.98, -6.36, -7.74, -9.74, -9.74, -10.73, -13.31, -13.72, -11.87, -10.68, -8.4, 0.0, 4.8, 6.0, 4.71, 8.48, 8.94, 8.49, 7.15, 6.4, 3.47, 2.8, 4.4, 5.69, 7.27, 6.44, 2.1, -1.93, -3.11, -4.4, -3.39, -1.49, 0.0, 0.0, 1.4, 0.0, 0.0, -4.24, 2.06, 2.2, 5.8, 8.37, 6.36, 5.86, 5.75, 5.09, 4.92, 5.36, 5.81, 5.2, 6.07, 6.14, -10.39, -10.11, -10.09, -10.69, -10.94, -11.23, -11.6, -12.21, -12.21, -12.09, -11.81, -12.17, -12.17, -12.24, -12.63, -12.02, -11.34, -10.54, -10.57, -11.33, -10.54, -8.66, -6.9, -5.55, -4.46, -4.31, -4.58, -4.0, 0.0, 3.48, 2.2, -0.0, -0.0, -0.0, -0.0, 5.37, -0.0, -0.0, -0.0, -3.2, -6.4, -7.6, -6.94, -5.64, -0.0, 4.74, 0.0, -6.26, -6.71, -6.61, -7.97, -9.39, -7.6, -7.15, -6.71, -6.36, -6.58, -8.24, -5.69, 7.6, 3.6, 3.6, 6.8, 5.37, -0.0, 0.0, 0.0, 0.0, 0.0, 6.79, 6.4, 8.23, 5.2, 0.0, -2.02, 0.0, 1.58, 2.99, 2.4, 2.99, 2.82, 1.1, 0.0, -4.8, -7.27, -3.96, 2.2, 9.3, 7.89, 7.47, 6.32, 5.46, 4.98, 5.36, 5.81, 5.36, 5.81, 5.81, -10.39, -10.11, -10.09, -10.36, -10.94, -11.29, -11.9, -12.21, -11.9, -11.81, -12.09, -12.09, -11.88, -12.24, -12.28, -11.99, -12.02, -11.38, -10.65, -11.06, -10.27, -8.84, -7.85, -7.46, -6.66, -5.93, -5.33, -5.2, -5.06, -3.4, 0.0, -0.0, 2.4, -0.0, 5.06, 4.74, -0.0, -0.0, -0.0, -0.0, -6.26, 0.0, 6.71, 6.0, 4.74, 6.79, 6.79, 6.71, 0.0, -6.26, -6.26, -6.71, -6.71, 6.0, 5.6, 0.0, -6.0, -5.95, -5.37, 0.0, 7.6, 7.6, 6.71, 0.0, 0.0, 0.0, -7.15, 0.0, 0.0, 6.71, 7.6, 9.83, 0.0, 0.0, 0.0, 4.46, 7.28, 6.32, 5.44, 4.46, 4.68, 2.99, 1.25, -1.49, -5.37, -5.01, 0.0, 8.43, 7.81, 6.8, 6.79, 4.46, 5.09, 5.75, 5.77, 4.92, 4.47, 4.47, -10.39, -10.11, -10.09, -10.36, -10.65, -11.29, -11.9, -11.9, -11.6, -11.52, -12.09, -12.09, -12.45, -12.16, -12.28, -11.69, -11.66, -11.37, -11.41, -11.06, -10.27, -8.84, -7.99, -6.94, -6.4, -5.25, -5.1, -5.02, -5.16, -4.24, -3.82, -3.6, 0.0, -0.0, 4.43, 3.0, -0.0, -0.0, -0.0, -0.0, -0.0, -0.0, 6.4, 5.94, 6.8, 6.8, 6.8, 7.15, 7.15, 7.15, 5.06, 6.4, 6.79, 5.95, 5.06, 0.0, -1.84, 0.0, 6.01, 6.32, 6.32, 5.69, 2.26, 2.12, 0.0, 0.0, 0.0, -7.15, -5.37, -1.98, -2.69, -7.9, -12.96, -11.62, 0.0, 8.49, 9.03, 7.87, 7.47, 6.32, 5.44, 5.03, 2.54, 1.32, 0.0, 0.0, 0.0, 4.24, 4.22, 6.18, 5.94, 4.74, 5.21, 6.36, 6.36, 5.2, 4.44, 4.44, -10.39, -10.11, -10.09, -10.36, -10.65, -10.94, -11.9, -11.9, -11.81, -11.52, -11.8, -12.16, -12.16, -12.16, -11.93, -11.36, -11.37, -11.37, -10.75, -9.73, -8.05, -7.69, -7.03, -6.0, -4.58, -3.37, -3.73, -3.98, -4.29, -5.31, -5.8, -5.92, -6.32, -5.6, 0.0, 5.06, -0.0, -1.98, -1.84, -0.0, -0.0, -0.0, -0.0, 5.06, 7.6, 8.05, 8.05, 7.6, 7.6, 6.8, 6.32, 6.32, 7.21, 6.32, 5.37, 2.4, 1.95, 3.6, 5.1, 5.1, 3.8, 3.6, 1.84, 1.63, 1.52, 3.22, 2.6, -3.2, -9.83, -7.9, -7.24, -9.3, -10.18, -6.32, 6.64, 9.11, 8.72, 6.95, 5.46, 5.44, 4.47, 2.32, 2.26, 1.54, 2.54, 4.56, 6.28, 4.6, 4.65, 5.69, 6.01, 4.65, 4.74, 5.93, 6.4, 5.34, 4.52, 4.52, -10.39, -10.11, -10.09, -10.36, -10.65, -10.94, -11.23, -11.6, -11.81, -11.52, -11.8, -12.16, -12.52, -12.52, -12.16, -12.9, -11.03, -11.03, -9.8, -8.01, -7.01, -7.6, -7.48, -6.76, -5.8, -5.04, -4.17, -4.96, -5.63, -6.57, -6.67, -7.24, -7.06, -6.32, 0.0, 0.0, 0.0, -0.0, -0.0, -0.0, -0.0, -0.0, -0.0, 4.74, 7.6, 8.05, 8.05, 7.2, 7.2, 6.8, 7.21, 7.37, 7.37, 7.37, 6.8, 5.69, 3.6, 3.8, 3.15, 3.15, 1.95, 0.0, 0.0, 0.0, 1.84, 5.81, 6.26, -3.0, -5.36, -7.59, -7.27, -2.19, 0.0, 1.5, 2.28, 4.8, 0.0, 0.0, 1.54, 1.2, 0.0, 0.0, 0.0, 0.0, 1.62, 4.0, 5.86, 4.71, 5.29, 3.49, 4.56, 3.47, 4.22, 5.03, 6.13, 5.6, 4.84, 4.84, -10.06, -10.11, -10.11, -10.36, -10.65, -10.94, -11.23, -11.6, -11.52, -11.58, -11.58, -12.16, -12.52, -12.52, -12.73, -11.93, -10.99, -10.59, -11.69, -10.02, -9.16, -8.77, -9.42, -10.02, -10.43, -10.11, -9.54, -8.76, -9.23, -8.46, -7.56, -7.25, -7.27, -5.59, 0.0, 0.0, 0.0, 2.6, 5.6, 6.26, 4.11, 2.98, 3.16, 4.0, 4.77, 7.6, 7.6, 5.37, 5.37, 6.8, 7.21, 7.6, 7.6, 7.37, 6.0, 5.72, 5.31, 3.91, 1.58, 0.0, 0.0, 0.0, 0.0, 0.0, 5.81, 4.11, 4.11, 6.71, 0.0, 1.2, 1.93, 2.81, 3.89, 2.93, 0.0, -3.82, -8.59, -8.24, -2.69, -1.18, 0.0, 0.0, 0.0, 0.0, 0.0, 3.2, 3.79, 4.12, 3.72, 2.76, 2.6, 3.15, 4.0, 4.14, 4.56, 5.37, 3.91, 3.91, -10.06, -9.78, -10.39, -10.39, -10.65, -10.94, -11.23, -11.6, -11.52, -11.58, -11.58, -12.16, -12.22, -12.22, -12.45, -12.16, -10.99, -10.88, -11.33, -12.56, -12.9, -11.7, -11.38, -11.05, -12.35, -12.35, -10.72, -10.75, -10.12, -8.53, -7.59, -6.57, -6.52, -7.07, 0.0, 0.0, 0.0, 2.6, 5.21, 5.58, 6.36, 6.26, 6.07, 6.14, 5.26, 7.6, 7.6, 5.37, 5.37, 6.4, 7.15, 7.15, 7.6, 7.6, 7.37, 5.72, 5.69, 5.15, 1.67, 0.0, -2.4, -3.4, -5.06, 0.0, 4.11, 3.22, 4.11, 6.26, 6.94, 6.91, 8.22, 6.98, 4.8, 1.03, -3.07, -6.98, -12.03, -10.94, -8.23, -4.75, -2.12, -0.89, 0.0, 0.89, 2.12, 3.35, 4.19, 5.05, 4.46, 4.01, 4.14, 3.65, 3.11, 2.12, 1.63, 4.74, 3.35, 3.35, -9.78, -9.78, -10.06, -10.06, -10.3, -10.94, -11.23, -11.29, -11.52, -11.58, -11.58, -11.87, -11.87, -12.22, -12.45, -12.16, -11.23, -11.26, -12.59, -13.87, -13.51, -13.09, -12.51, -11.96, -11.7, -11.06, -10.43, -10.11, -8.87, -7.9, -6.15, -5.81, -6.71, -6.71, -7.15, 0.0, 0.0, 3.48, 5.2, 5.21, 5.94, 6.26, 6.26, 6.26, 5.81, 5.36, 8.05, 5.37, 5.06, 6.71, 7.15, 7.6, 7.15, 7.15, 6.94, 6.8, 6.8, 7.6, 6.79, 0.0, -6.4, -6.4, -7.15, 6.0, 5.21, 4.84, 4.84, 5.21, 6.26, 7.81, 8.0, 6.7, 6.2, 5.09, -7.28, -12.2, -14.79, -14.74, -12.63, -9.2, -5.69, -3.0, 0.0, 0.89, 3.0, 4.11, 4.54, 5.6, 5.37, 6.11, 5.54, 3.25, 1.25, 0.96, 2.0, 3.79, 4.11, 4.11, -9.78, -9.78, -9.78, -10.06, -10.06, -10.94, -10.94, -11.29, -11.23, -11.58, -11.28, -11.87, -12.22, -12.22, -11.92, -12.16, -11.23, -11.32, -12.32, -12.65, -12.63, -11.92, -11.87, -11.87, -11.63, -11.08, -10.13, -9.14, -7.96, -6.95, -6.55, -6.36, -5.81, -4.8, -4.8, -4.11, 0.0, 0.0, 4.4, 5.51, 5.94, 6.26, 6.26, 6.26, 5.36, 4.92, 7.15, 6.71, 6.26, 7.15, 7.6, 7.6, 7.6, 7.15, 7.15, 7.15, 6.71, 6.79, 6.44, 3.72, -5.06, -7.6, 0.0, 6.79, 6.0, 5.7, 5.2, 6.36, 6.36, 6.71, 0.0, 0.0, 13.86, 8.49, -5.36, -9.76, -13.57, -14.79, -14.84, -13.25, -9.75, -6.28, -2.49, 0.0, 3.45, 4.74, 5.24, 5.06, 4.6, 4.58, 5.08, 3.8, 1.49, 1.33, 2.84, 3.58, 3.07, 3.07, -9.46, -9.46, -9.78, -10.06, -10.06, -10.94, -10.94, -11.29, -11.23, -11.58, -11.28, -11.63, -12.22, -12.22, -11.92, -11.87, -11.23, -11.96, -12.35, -11.7, -11.38, -10.43, -10.43, -10.36, -10.72, -10.45, -10.13, -8.85, -7.59, -7.02, -6.98, -4.6, -3.6, -3.2, -3.72, -3.0, 0.0, 0.0, 2.4, 3.79, 4.84, 5.6, 6.0, 5.81, 5.7, 4.92, 6.0, 6.0, 6.4, 7.21, 7.63, 7.21, 7.6, 7.15, 7.15, 7.15, 5.81, 6.71, 7.21, 4.74, 0.0, -6.71, -0.0, 5.58, 4.57, 5.51, 8.05, 8.94, 7.6, 7.15, -4.74, -9.39, 0.0, 4.11, 4.11, -3.48, -8.48, -11.62, -13.39, -13.8, -12.22, -9.74, -7.6, -3.6, 0.0, 3.97, 3.2, 4.0, 3.49, 4.47, 4.26, 3.38, 3.35, 2.68, 3.22, 3.48, 2.99, 2.99, -9.46, -9.46, -9.46, -9.78, -10.06, -10.06, -10.94, -10.99, -10.99, -11.28, -11.28, -11.63, -11.87, -11.87, -11.58, -11.52, -11.23, -11.88, -11.93, -11.7, -11.07, -10.37, -10.1, -10.11, -10.11, -9.21, -9.22, -8.85, -7.83, -7.11, -6.31, -5.0, -3.45, -3.52, -2.69, -1.58, -1.49, 0.0, 0.0, 2.8, 3.72, 4.74, 5.72, 5.36, 5.37, 5.2, 4.65, 4.11, 3.91, 3.91, 4.11, 6.8, 6.4, 7.15, 7.6, 7.15, 6.71, 4.11, 0.0, 0.0, 0.0, -4.92, -0.0, 3.72, 4.98, 7.47, 8.94, 8.49, 7.6, 0.0, -5.37, -5.37, -2.1, 1.45, 3.87, 4.46, 2.99, 0.0, -8.0, -11.45, -13.28, -12.52, -10.84, -9.2, 0.0, 6.8, 5.69, 5.69, 5.72, 5.94, 5.6, 5.69, 3.78, 3.07, 3.16, 3.35, 3.63, 3.63, -9.17, -9.17, -9.17, -9.46, -10.06, -10.06, -10.06, -10.99, -10.99, -11.28, -11.28, -11.63, -11.63, -11.87, -11.87, -11.28, -11.23, -11.88, -12.02, -11.37, -11.06, -10.43, -10.08, -10.02, -10.02, -9.14, -8.58, -8.2, -7.57, -7.04, -6.14, -5.4, -4.01, -3.51, -2.83, -1.94, -1.05, 0.0, 0.0, 1.25, 2.4, 2.82, 3.91, 3.91, 5.06, 4.74, 4.74, 3.91, 3.91, 3.63, 3.79, 3.48, 6.71, 7.15, 7.6, 7.6, 6.71, 6.26, 0.0, -7.15, -3.2, -3.2, 0.0, 3.82, 6.0, 8.67, 8.77, 8.05, 7.15, 0.0, -3.97, -5.36, -2.21, 0.0, 3.73, 7.18, 8.02, 3.45, -5.2, -8.94, -12.96, -14.3, -13.41, -4.8, 2.8, 7.15, 6.94, 7.06, 7.06, 6.17, 6.23, 5.06, 4.5, 3.9, 3.72, 3.07, 2.73, 2.73, -9.17, -9.17, -9.17, -9.17, -9.78, -10.06, -10.06, -10.65, -10.69, -10.69, -11.28, -11.28, -11.28, -11.63, -11.63, -11.28, -11.23, -11.58, -11.36, -11.37, -11.06, -10.74, -10.39, -9.69, -9.69, -9.12, -8.2, -7.55, -6.92, -6.53, -5.65, -5.2, -3.92, -3.53, -2.95, -2.31, -1.5, -0.89, 0.0, 0.0, 0.0, 0.0, 1.2, 3.6, 4.22, 4.75, 4.75, 4.47, 4.19, 3.91, 3.49, 4.09, 4.47, 4.24, 6.26, 6.71, 7.15, 6.71, 6.26, -6.71, -7.2, -3.2, 0.0, 5.51, 8.94, 8.49, 8.49, 7.6, 0.0, -5.06, -3.97, -4.56, -4.46, -2.46, 2.58, 6.5, 9.48, 4.8, -6.26, -6.71, -10.73, -14.3, -12.79, -2.1, -0.0, 3.72, 7.15, 7.06, 6.79, 6.79, 5.36, 3.22, 3.99, 4.21, 3.33, 2.73, 2.73, 2.73, -9.17, -9.17, -9.17, -9.17, -9.46, -10.06, -10.06, -10.39, -10.99, -10.69, -11.03, -11.28, -11.28, -11.63, -11.28, -11.23, -11.23, -11.58, -11.36, -11.05, -10.75, -10.44, -10.44, -10.08, -9.69, -9.12, -8.46, -7.55, -7.16, -6.53, -5.92, -5.2, -4.15, -3.39, -2.76, -2.15, -1.45, -0.75, 0.0, 0.0, 0.0, 0.0, 1.05, 3.35, 4.68, 4.68, 4.21, 3.4, 3.68, 4.02, 4.11, 5.36, 4.92, 3.48, 3.48, 5.2, 4.74, 4.74, 4.43, -0.0, -7.15, -3.4, 0.0, 3.97, 8.24, 9.83, 7.6, -7.6, -7.6, -6.8, -5.37, -3.6, -4.37, -6.01, -3.4, 0.0, 0.0, -9.83, -6.26, -6.26, -7.94, -13.41, -14.42, -5.2, -0.0, -0.0, 5.21, 7.15, 6.64, 6.13, 4.29, 2.66, 3.2, 2.83, 3.99, 3.33, 2.6, 2.6, -8.85, -8.85, -8.85, -9.17, -9.46, -9.72, -10.06, -10.39, -10.36, -10.69, -10.69, -11.03, -11.28, -11.28, -11.28, -11.23, -11.23, -11.28, -11.36, -11.05, -11.05, -10.44, -10.44, -9.79, -9.42, -8.75, -7.8, -7.55, -7.16, -6.3, -6.14, -5.1, -4.32, -3.76, -2.95, -2.15, -1.45, -0.7, 0.0, 0.0, 0.0, 0.0, 1.05, 1.84, 4.29, 5.0, 3.8, 1.95, 5.37, 4.74, 5.81, 5.36, -0.0, -0.0, 2.2, 3.16, 4.43, 4.74, 2.8, -0.0, -6.71, -4.22, 0.0, 5.69, 8.67, 8.24, 8.67, -8.05, -7.37, -7.21, -7.2, -1.58, -1.2, -4.71, -9.1, -9.3, -9.97, -6.94, -5.81, -5.64, -5.51, -11.56, -14.31, -13.86, 0.0, 5.36, 5.36, 6.26, 3.47, 2.32, 1.23, 1.23, 0.0, 2.09, 2.09, 3.17, 2.82, 2.82, -8.54, -8.54, -8.54, -9.17, -9.46, -9.17, -9.77, -10.09, -10.09, -10.09, -10.69, -10.69, -11.03, -11.03, -10.69, -10.99, -10.99, -11.28, -11.03, -10.43, -10.75, -10.44, -10.44, -10.44, -9.5, -8.49, -8.08, -7.4, -6.72, -6.3, -5.52, -5.02, -4.48, -3.68, -3.07, -2.25, -1.45, -0.73, 0.0, 0.0, 0.0, 0.0, 0.99, 1.14, 3.2, 2.82, 2.69, 0.0, 0.0, 3.48, 3.48, 4.92, -0.0, -0.0, -0.0, 1.55, 2.48, 2.0, 2.8, -0.0, -6.71, -5.06, 0.0, 7.2, 7.2, 8.05, 8.05, 6.32, -2.8, -6.8, -8.05, -3.4, 0.0, -1.07, -6.44, -10.36, -9.27, -7.89, -4.77, -4.65, -4.19, -7.95, -9.69, -5.02, 2.81, 3.0, 2.4, 1.05, 0.0, 0.0, 0.0, 0.0, 0.0, 0.0, 1.2, 1.2, 2.21, 2.21, -8.54, -8.54, -8.54, -8.85, -9.17, -9.48, -9.77, -10.09, -10.09, -10.09, -10.09, -10.69, -10.69, -10.69, -10.69, -10.99, -10.69, -10.94, -10.99, -10.43, -10.43, -10.43, -10.13, -10.13, -9.5, -8.86, -7.83, -7.44, -6.51, -5.45, -5.45, -5.71, -4.77, -4.24, -3.68, -2.34, -1.52, -0.73, -0.73, 0.0, 0.0, 0.0, 0.0, 0.94, 1.07, 0.0, 0.0, 0.0, 0.79, 0.7, 0.7, 0.0, 0.0, 0.0, -0.0, 3.48, 3.48, 3.79, 3.48, -0.0, 0.0, -5.37, 0.0, 0.0, 0.0, 0.0, 6.0, 5.37, 0.0, -7.15, -6.26, -6.26, 0.0, 1.18, 0.0, -6.8, -8.46, -6.87, -5.63, -4.14, -4.4, -4.74, -5.0, 0.0, 3.68, 3.87, 2.9, 0.69, 0.0, 0.0, 0.0, 0.0, -1.03, -1.25, 0.0, 0.0, 0.0, 0.0, -8.54, -8.54, -8.54, -8.56, -9.17, -9.48, -9.48, -10.09, -10.09, -10.09, -10.09, -10.09, -10.42, -10.69, -10.69, -10.99, -10.69, -10.69, -10.4, -9.8, -9.8, -10.43, -10.43, -10.13, -9.5, -8.51, -7.85, -7.34, -6.31, -5.33, -5.45, -5.45, -5.52, -4.24, -3.68, -3.07, -2.34, -1.52, -0.73, -0.79, 0.0, 0.0, 0.0, 0.0, 0.0, -0.93, -0.85, 0.0, 0.62, 0.64, 0.59, 0.0, 0.0, 0.0, 0.0, 0.0, 4.92, 5.36, 5.36, 0.0, 0.0, 0.0, 0.0, -3.4, -8.05, 0.0, 0.0, 0.0, -7.6, -6.8, -6.71, -0.0, -8.94, 0.0, 0.0, -1.26, -6.4, -6.97, -5.36, -3.45, -1.54, 0.0, 0.0, 2.66, 3.3, 3.11, 2.34, 1.74, 0.0, 0.0, -0.96, -1.05, -1.55, -0.81, 0.0, 0.0, 0.0, 0.0, -8.24, -8.24, -8.56, -8.56, -9.17, -9.48, -9.48, -9.48, -9.48, -9.77, -9.77, -10.09, -10.42, -10.42, -10.42, -10.99, -10.69, -10.12, -9.78, -9.46, -9.8, -10.12, -9.82, -9.82, -9.16, -8.51, -7.73, -7.6, -6.87, -6.15, -5.4, -5.65, -4.6, -4.24, -3.68, -2.88, -2.34, -2.25, -1.52, -0.79, -0.79, -0.75, -0.82, -0.85, -0.93, -0.85, 0.0, 0.0, 0.0, 0.0, 0.0, 0.0, 0.0, 0.0, 0.0, 0.0, 0.0, 0.0, 0.0, 0.0, 0.0, 0.0, 0.0, 0.0, -7.6, -7.6, 0.0, 0.0, -8.05, -6.01, 0.0, 8.94, -8.49, -5.63, -2.45, -1.26, -1.62, -2.54, 0.0, 0.0, 0.0, 1.52, 2.19, 2.28, 1.77, 1.17, 1.17, 1.14, 0.81, 0.0, 0.0, -1.99, -1.83, -2.07, -2.49, 0.0, 0.0, 0.0, -8.24, -8.24, -8.56, -8.56, -9.17, -9.48, -9.48, -9.48, -9.48, -9.48, -9.48, -9.77, -10.09, -10.09, -10.42, -10.42, -10.12, -10.09, -9.78, -10.12, -10.12, -10.12, -10.12, -9.21, -8.87, -8.81, -8.05, -8.31, -7.77, -6.51, -5.86, -4.66, -4.32, -3.68, -3.68, -2.88, -3.07, -2.25, -1.52, -1.45, -1.56, -1.5, -0.82, -0.89, -0.85, -0.89, -0.82, -0.78, 0.0, 0.0, 0.0, 0.0, 0.0, -0.64, -0.67, 0.0, 0.0, 0.0, 0.0, 0.0, 0.0, 0.0, 0.0, 0.0, -7.15, -7.15, -7.15, -6.71, -8.05, -8.49, 0.0, 8.4, 0.0, -5.86, -6.64, -3.09, 0.0, 3.92, 4.54, 2.71, 0.8, 0.74, 0.0, 0.0, 0.0, 0.0, 0.0, 0.67, 1.01, 0.0, 0.0, -2.32, -2.53, -1.84, -3.63, -1.58, -1.58, -1.58, -8.24, -8.24, -8.56, -8.56, -8.87, -9.17, -9.48, -9.48, -9.48, -9.48, -9.48, -9.48, -9.8, -10.09, -10.09, -10.42, -10.12, -9.78, -9.78, -9.8, -9.8, -9.5, -9.5, -9.17, -9.17, -8.15, -8.05, -7.85, -7.53, -6.51, -5.52, -4.84, -4.24, -3.68, -3.68, -3.07, -3.07, -2.25, -2.25, -1.45, -1.45, -1.5, -0.75, -0.82, -0.82, -0.82, -1.62, -1.54, -0.78, -0.74, -0.71, -0.73, -0.76, -0.79, -0.78, -0.82, -0.81, -1.08, -1.41, -2.0, 0.0, 0.0, 0.0, 0.0, 0.0, -7.6, -6.71, -7.15, -6.8, -6.8, 0.0, 0.0, 0.0, -2.19, -4.08, -1.9, 1.83, 5.11, 4.98, 3.14, 0.71, -0.75, -1.6, -1.77, -0.89, 0.0, 0.0, 1.43, 1.33, 0.0, 0.0, -1.7, -2.4, -2.51, -3.48, -6.08, -3.8, -3.8, -7.95, -7.95, -8.56, -8.56, -8.87, -8.87, -9.17, -9.17, -9.17, -9.17, -9.48, -9.48, -9.48, -9.8, -9.8, -10.09, -9.78, -9.48, -9.8, -9.8, -9.5, -9.5, -9.17, -9.17, -8.53, -8.46, -8.05, -7.6, -7.11, -6.07, -5.52, -4.77, -4.02, -3.47, -3.68, -2.88, -3.07, -2.25, -2.41, -1.56, -1.56, -1.5, -0.72, -0.75, -0.75, -0.79, -1.56, -1.5, -1.54, -1.54, -1.47, -0.77, -0.73, -0.76, -0.79, -0.95, -0.96, -1.05, -1.08, -1.41, -1.55, 0.0, 0.0, 0.0, 0.0, 0.0, 0.0, -8.05, -7.2, -5.37, -6.01, 0.0, 2.39, 0.98, 0.0, 0.0, 1.05, 3.81, 2.89, 1.73, 0.0, -0.83, -1.92, -2.6, -1.52, 0.0, 1.58, 1.33, 0.76, 0.0, -0.89, -2.8, -2.76, -2.41, -2.53, -5.4, -6.79, -6.79, -7.95, -7.95, -8.56, -8.56, -8.87, -8.87, -8.87, -8.87, -9.17, -9.17, -9.48, -9.19, -9.19, -9.5, -9.8, -9.8, -9.48, -9.8, -9.48, -9.48, -9.19, -8.87, -8.87, -8.53, -8.53, -8.46, -8.05, -7.6, -7.11, -6.36, -5.8, -4.77, -4.02, -4.02, -3.47, -2.99, -3.07, -2.34, -2.41, -1.63, -1.56, -0.75, -0.78, 0.0, 0.0, -0.75, -2.31, -2.31, -2.21, -2.28, -1.47, -1.4, -1.44, -1.49, -1.65, -1.73, -1.72, -1.84, -2.0, -1.19, -1.55, -1.55, 0.0, 0.0, 0.0, 0.0, 0.0, -7.6, -8.05, -6.8, -5.37, -0.0, 8.4, 4.8, 3.04, 0.0, -1.58, -2.45, -3.28, -2.8, -0.84, 0.0, 0.0, 0.0, 0.0, 0.0, 1.25, 0.7, 0.7, 0.0, -0.89, -3.22, -2.95, -2.0, -1.6, -3.16, -6.94, -7.89, -7.95, -7.95, -8.56, -8.56, -8.56, -8.87, -8.87, -8.87, -8.87, -8.87, -9.17, -9.19, -9.19, -9.5, -9.5, -9.8, -9.48, -9.48, -9.48, -9.17, -9.19, -8.58, -8.87, -8.53, -8.15, -8.46, -8.05, -7.6, -6.87, -6.36, -5.6, -5.02, -4.24, -3.47, -3.47, -2.99, -2.19, -2.34, -1.58, -1.52, -1.45, -1.5, -0.74, 0.0, 0.0, 0.0, -2.34, -3.16, -3.25, -3.11, -2.17, -2.06, -2.12, -2.0, -2.18, -2.26, -2.35, -2.29, -1.66, -1.83, -2.2, -1.19, 0.0, 0.0, -5.06, -5.69, -5.69, -7.15, -7.6, -7.6, -6.4, -0.0, 8.94, 3.11, 3.25, 3.41, 0.0, -6.63, -7.42, -6.99, -3.56, -0.78, 0.0, 0.0, 0.0, 0.73, 0.88, 0.76, 0.82, 0.0, 0.0, -2.16, -2.4, -1.41, 0.0, 0.0, -4.11, -6.94, -7.95, -7.95, -8.56, -8.56, -8.56, -8.87, -8.87, -8.87, -8.87, -8.87, -8.58, -8.58, -9.19, -9.19, -9.5, -9.8, -9.17, -9.15, -9.17, -9.17, -8.87, -8.58, -8.24, -8.24, -7.87, -8.17, -7.78, -7.34, -6.87, -6.14, -5.6, -4.84, -4.84, -4.32, -3.53, -2.88, -2.19, -2.19, -2.19, -2.1, -1.52, -1.56, -1.54, -1.67, -1.11, -1.42, -3.32, -4.3, -4.25, -3.21, -3.06, -2.9, -2.12, -2.0, -2.18, -2.26, -2.72, -2.11, -2.2, -2.2, -1.83, -2.2, -1.3, -3.4, -3.4, -3.4, -6.4, -6.79, -7.6, -7.6, -7.6, -0.0, -8.94, 0.0, 3.98, 5.78, 4.6, 0.0, -3.82, -6.0, -5.4, -2.39, -0.8, 0.0, 0.72, 0.82, 0.83, 0.83, 0.78, 0.78, 0.0, -0.82, -2.16, -1.73, 0.0, 0.0, 0.0, -4.11, -7.95, -7.95, -8.24, -8.56, -8.56, -8.56, -8.56, -8.87, -8.87, -8.87, -8.58, -8.58, -8.87, -9.19, -9.19, -9.17, -9.17, -9.15, -8.85, -8.56, -8.56, -7.96, -8.24, -8.24, -7.87, -7.48, -7.78, -7.34, -6.63, -6.14, -5.4, -5.4, -4.66, -4.32, -3.53, -2.88, -2.88, -2.19, -2.19, -2.1, -2.1, -2.15, -2.21, -3.21, -3.78, -3.97, -3.29, -3.49, -3.45, -3.15, -3.15, -3.15, -2.75, -2.6, -2.82, -2.66, -2.72, -2.88, -2.11, -2.2, -2.2, -2.53, -3.2, -3.2, -3.4, -3.4, -5.06, -7.2, -7.15, -7.6, 0.0, -8.05, -8.94, -8.94, 2.83, 4.83, 5.98, 4.36, 1.16, 0.0, -1.23, 0.0, 0.0, 0.71, 0.84, 0.0, 0.0, 0.0, 0.0, 0.0, 0.0, 0.0, -1.72, -2.99, -1.95, 0.0, 0.0, 0.0, -7.95, -7.95, -7.95, -8.24, -8.24, -8.56, -8.56, -8.56, -8.56, -8.87, -8.58, -8.58, -8.58, -8.87, -9.17, -9.17, -8.83, -8.85, -8.85, -8.54, -8.24, -8.24, -7.96, -7.6, -7.87, -7.78, -7.51, -7.09, -6.63, -6.14, -5.92, -5.4, -4.66, -4.48, -4.15, -3.53, -3.53, -2.76, -2.76, -2.1, -2.1, -2.15, -2.15, -3.02, -4.4, -4.75, -3.02, -2.12, -2.4, -2.26, -2.4, -2.31, -2.99, -2.99, -2.82, -3.09, -3.0, -3.11, -2.88, -2.98, -2.98, -3.07, -3.07, -5.37, -3.4, -3.4, 0.0, -3.4, 0.0, 0.0, -8.05, -8.05, -8.91, -8.49, -9.39, 0.0, 1.26, 2.82, 3.21, 4.12, 4.03, 3.2, 2.9, 3.02, 2.49, 1.04, 0.0, 0.0, -0.89, -0.89, -0.89, -0.79, -1.73, -2.54, -3.15, -2.69, -2.69, -2.69, -7.95, -7.95, -7.95, -7.95, -8.24, -8.24, -8.24, -8.24, -8.24, -8.56, -8.58, -8.58, -8.58, -8.58, -8.83, -8.83, -8.54, -8.85, -8.2, -8.54, -8.24, -7.95, -7.6, -7.6, -7.22, -7.51, -7.09, -7.09, -6.63, -6.4, -5.92, -5.2, -5.2, -4.48, -4.48, -4.15, -3.98, -3.39, -2.76, -2.76, -2.65, -2.65, -2.82, -2.82, -3.61, -3.76, -2.15, -2.01, -2.06, -2.12, -2.06, -2.06, -2.18, -2.82, -2.82, -3.09, -3.55, -3.33, -3.47, -3.22, -2.98, -2.98, -3.48, -4.22, -2.4, 0.0, 0.0, 0.0, 5.06, 0.0, -8.05, -8.49, -8.77, -9.39, -9.21, -6.32, -1.47, 0.98, 3.29, 5.51, 7.12, 7.93, 7.48, 5.28, 3.96, 2.6, 1.05, 0.0, -0.78, -1.73, -1.73, -1.73, -1.73, -4.0, -4.6, -3.32, -3.32, -3.32, -7.95, -7.95, -7.95, -7.95, -8.24, -8.24, -8.24, -8.24, -8.24, -8.24, -8.28, -8.58, -7.96, -8.54, -8.54, -8.54, -8.17, -8.2, -8.2, -8.54, -8.24, -7.61, -7.61, -7.33, -7.22, -7.51, -7.09, -7.09, -6.4, -6.4, -5.92, -4.95, -5.2, -4.48, -4.48, -4.48, -3.98, -3.98, -3.25, -3.25, -2.65, -2.65, -3.25, -3.46, -3.46, -3.46, -2.7, -2.76, -2.63, -2.69, -1.95, -2.0, -1.88, -2.66, -2.82, -3.4, -3.55, -3.33, -3.47, -3.47, -3.22, -3.43, -3.43, -3.35, -2.54, 0.0, 0.0, 3.2, 6.8, 0.0, -8.94, -8.49, -8.94, -9.39, -9.64, -7.81, -1.84, 0.0, 2.0, 5.8, 10.08, 11.4, 9.41, 6.72, 5.15, 3.07, 2.11, 0.85, -0.89, -1.84, -2.33, -1.72, -2.26, -3.8, 0.0, 8.49, 8.49, 8.49, -7.95, -7.95, -7.95, -7.95, -8.24, -8.24, -8.24, -8.24, -8.24, -8.24, -8.24, -8.58, -8.24, -7.89, -8.17, -8.17, -7.89, -8.2, -8.2, -8.24, -7.61, -7.61, -7.61, -7.24, -7.24, -7.24, -6.84, -6.84, -6.4, -6.12, -5.44, -5.44, -4.95, -4.76, -4.48, -4.3, -4.3, -4.54, -3.82, -3.82, -3.25, -3.25, -3.25, -3.25, -3.46, -3.46, -3.31, -3.37, -3.21, -3.21, -3.27, -2.54, -2.4, -2.6, -2.44, -2.9, -3.2, -3.55, -3.72, -3.47, -3.63, -3.72, -3.43, -3.43, -2.99, 0.0, 0.0, 0.0, 0.0, -7.6, -8.05, -8.49, -8.94, -9.39, -9.21, -8.4, -2.97, 0.0, 1.28, 5.21, 9.87, 10.84, 8.99, 6.9, 5.55, 3.07, 1.56, 0.0, -0.98, -1.33, -1.73, -0.96, 0.0, 6.79, 7.6, 7.5, 7.5, 7.5, -7.61, -7.61, -7.95, -7.95, -7.95, -7.95, -8.24, -8.24, -8.24, -8.24, -8.24, -7.96, -8.24, -7.89, -8.17, -7.89, -7.89, -7.9, -7.9, -8.24, -7.61, -7.61, -7.61, -7.24, -7.24, -7.24, -6.84, -6.56, -6.12, -5.89, -5.44, -5.44, -5.44, -4.76, -4.76, -4.26, -4.3, -4.3, -4.54, -4.35, -3.82, -3.82, -3.82, -3.65, -3.87, -3.87, -3.87, -3.93, -3.75, -3.75, -3.56, -3.09, -3.09, -3.09, -3.2, -3.47, -3.79, -4.16, -3.72, -3.72, -3.91, -4.11, -3.79, -3.43, -3.35, -2.69, 0.0, -3.4, -5.69, -7.21, -8.33, -8.49, -8.49, -8.94, -9.11, -6.64, 0.0, 0.0, 1.62, 6.95, 7.59, 7.97, 8.78, 8.68, 7.89, 4.36, 0.97, 0.0, 0.0, 0.0, 2.2, 4.92, 5.36, 6.26, 6.61, 6.0, 6.0, 6.0, -7.61, -7.61, -7.95, -7.95, -7.95, -7.95, -7.95, -7.95, -8.24, -8.24, -8.24, -7.96, -7.96, -7.89, -7.89, -7.89, -7.89, -7.61, -8.24, -8.24, -7.9, -7.61, -7.24, -7.24, -7.24, -7.24, -6.84, -6.56, -5.89, -5.89, -5.89, -5.44, -5.44, -4.76, -4.76, -4.76, -4.08, -4.3, -4.3, -4.35, -4.35, -4.35, -4.16, -3.65, -3.87, -3.87, -3.7, -3.7, -3.75, -3.75, -3.56, -3.56, -3.6, -3.6, -3.64, -3.68, -3.72, -3.55, -3.9, -4.01, -4.01, -4.11, -3.79, -3.48, -3.48, -3.6, -3.4, -3.4, -3.6, -3.4, -7.6, -8.49, -8.94, -8.94, -9.39, -6.64, -4.2, 0.0, 3.49, 6.64, 6.95, 5.98, 9.61, 12.0, 10.31, 5.81, 2.13, 0.0, 3.76, 4.6, 5.81, 5.26, 4.92, 6.14, 5.75, 4.47, 4.47, 4.47, -7.32, -7.32, -6.98, -7.32, -7.95, -7.95, -7.95, -7.95, -8.24, -8.24, -8.24, -8.24, -7.95, -7.61, -7.89, -7.89, -7.89, -7.95, -8.24, -8.24, -7.9, -7.61, -7.24, -7.24, -7.24, -7.24, -6.84, -6.31, -5.89, -5.89, -5.89, -5.44, -5.44, -5.23, -4.76, -4.76, -4.57, -4.8, -4.8, -4.6, -4.84, -4.84, -4.35, -4.4, -4.4, -4.4, -4.2, -4.2, -4.45, -4.24, -4.03, -4.03, -4.28, -4.05, -4.08, -3.91, -3.97, -3.72, -3.76, -4.07, -4.01, -4.11, -3.79, -3.48, -3.84, -4.74, -3.0, 0.0, 0.0, 0.0, -3.8, -7.44, -8.94, -8.94, -8.94, -8.94, -6.32, 0.0, 6.32, 7.15, 6.32, 6.01, 8.69, 9.92, 8.46, 4.97, 2.4, 4.77, 4.85, 5.64, 5.75, 5.81, 4.92, 5.51, 3.47, 1.32, 1.32, 1.32, -6.98, -6.98, -6.98, -6.98, -7.61, -7.95, -7.95, -7.95, -8.24, -8.24, -7.95, -7.61, -7.61, -7.61, -7.89, -7.89, -7.95, -7.95, -8.24, -7.9, -7.61, -7.24, -7.24, -7.24, -7.24, -7.24, -6.84, -6.58, -6.31, -5.89, -5.89, -5.89, -5.23, -5.23, -5.23, -5.02, -4.57, -4.57, -4.8, -4.6, -4.84, -4.84, -4.84, -4.88, -4.88, -4.66, -4.92, -4.92, -4.92, -4.69, -4.24, -4.03, -4.03, -4.05, -4.32, -4.36, -4.1, -4.39, -4.42, -4.07, -4.11, -4.11, -4.12, -3.79, -3.84, -5.21, -5.6, -4.74, -5.06, -3.4, -2.54, -2.69, -4.96, -8.94, -8.94, -8.49, -8.49, 0.0, 8.49, 7.07, 6.01, 6.01, 6.98, 5.45, 4.21, 2.19, 4.11, 4.38, 4.41, 5.31, 6.02, 6.36, 4.8, 1.7, 0.0, 0.0, 0.0, 0.0, -6.98, -6.98, -6.98, -6.98, -7.61, -7.95, -7.95, -7.95, -7.95, -7.95, -7.61, -7.61, -7.61, -7.61, -7.89, -7.61, -7.95, -7.95, -7.95, -7.61, -7.33, -7.33, -7.24, -7.24, -7.24, -7.24, -6.97, -6.58, -6.58, -6.31, -5.89, -5.67, -5.67, -5.23, -5.23, -5.02, -5.02, -5.02, -4.8, -4.6, -5.29, -5.29, -4.84, -4.88, -4.88, -4.66, -4.92, -4.92, -4.92, -4.69, -4.69, -4.45, -4.71, -4.71, -4.73, -4.61, -4.36, -4.39, -4.42, -4.74, -4.11, -4.11, -4.12, -4.12, -4.12, -4.19, -6.0, -6.26, -6.26, -6.71, -7.15, -5.69, -2.17, -4.96, -8.94, -8.94, -7.6, -0.0, 6.01, 8.49, 7.07, 6.79, 4.83, 2.46, 0.98, 0.0, 4.22, 3.2, 3.35, 4.47, 5.2, 5.37, 2.8, 0.0, 0.0, 1.3, 1.3, 1.3, -6.98, -6.98, -6.98, -6.98, -7.32, -7.61, -7.95, -7.95, -7.95, -7.61, -7.61, -7.61, -7.61, -7.61, -7.61, -7.95, -7.95, -7.95, -7.61, -7.33, -7.33, -7.33, -7.24, -7.24, -7.24, -7.24, -6.97, -6.58, -6.58, -6.31, -6.31, -5.89, -5.67, -5.67, -5.67, -5.23, -5.02, -5.26, -5.26, -5.04, -5.04, -5.29, -5.06, -5.32, -5.32, -5.08, -4.92, -4.92, -4.92, -5.21, -4.96, -4.96, -4.71, -4.71, -4.73, -5.03, -4.75, -5.05, -5.06, -4.42, -4.43, -4.41, -4.11, -4.46, -4.46, -4.84, -5.58, -5.94, -6.71, -6.71, -7.01, -7.6, -7.2, -6.01, -7.44, -8.94, -6.01, -0.0, 3.8, 6.01, 8.49, 7.07, 4.83, 1.13, 0.0, 0.0, 2.49, 2.2, -0.0, -0.0, 4.92, 3.97, 1.63, 0.0, 3.72, 4.92, 4.92, 4.92, -6.98, -6.98, -6.98, -6.98, -6.98, -7.32, -7.61, -7.61, -7.61, -7.33, -7.61, -7.61, -7.61, -7.61, -7.61, -7.95, -7.95, -7.95, -7.61, -7.61, -7.61, -7.61, -7.24, -7.24, -7.24, -6.97, -6.97, -6.97, -6.97, -6.58, -6.31, -6.31, -5.89, -5.67, -5.67, -5.67, -5.67, -5.26, -5.26, -5.26, -5.29, -5.29, -5.06, -5.32, -5.32, -5.08, -5.34, -5.09, -5.63, -5.63, -4.96, -4.96, -4.71, -4.71, -5.0, -5.03, -4.75, -5.05, -5.06, -4.74, -5.05, -4.43, -4.75, -5.09, -4.81, -5.09, -4.73, -4.46, -5.95, -7.15, -7.6, -8.05, -7.6, -7.01, -7.15, -8.49, -6.01, -0.0, -0.0, 5.69, 8.05, 7.2, 2.33, 2.28, 2.07, 1.15, 0.0, -3.2, -2.53, -2.98, 0.0, 6.79, 6.8, 5.36, 4.85, 5.36, 5.36, 5.36, -6.98, -6.98, -6.98, -7.32, -6.98, -6.98, -7.32, -7.61, -7.61, -7.33, -7.61, -7.95, -8.24, -7.89, -7.95, -7.95, -7.95, -7.95, -7.61, -7.61, -7.61, -7.61, -7.61, -6.97, -6.97, -6.97, -6.97, -6.97, -6.97, -6.97, -6.58, -6.31, -6.31, -6.07, -5.67, -5.67, -5.67, -5.92, -5.69, -5.04, -5.29, -5.29, -5.06, -5.72, -5.32, -5.08, -5.34, -5.34, -5.36, -5.63, -5.36, -5.36, -4.71, -5.0, -5.0, -5.03, -5.03, -5.05, -5.37, -5.06, -5.05, -5.05, -4.75, -4.75, -5.09, -4.74, -5.09, -4.46, -5.06, -5.06, -6.7, -7.63, -8.05, -8.05, -7.6, -7.6, -7.81, -5.69, -0.0, -0.0, 0.0, 8.05, 2.49, 3.53, 3.41, 2.42, 0.0, -3.79, -2.53, -2.23, 4.11, 8.05, 7.94, 5.94, 5.75, 4.88, 4.88, 4.88, -6.98, -6.98, -7.32, -7.32, -7.32, -7.32, -7.32, -7.61, -7.33, -7.61, -7.61, -7.95, -7.61, -7.61, -7.61, -7.95, -7.95, -7.95, -7.95, -7.61, -7.61, -7.61, -7.61, -7.61, -6.97, -6.97, -6.97, -6.97, -6.97, -6.97, -6.97, -6.58, -6.58, -6.31, -6.07, -6.07, -5.67, -5.92, -5.69, -5.69, -5.7, -5.29, -5.32, -5.32, -5.72, -5.08, -5.34, -5.34, -5.34, -5.63, -5.63, -5.36, -5.26, -5.0, -5.0, -5.03, -5.03, -5.05, -5.37, -5.06, -5.38, -5.38, -5.36, -5.09, -5.09, -4.74, -4.74, -4.74, -4.43, -4.22, -3.4, 0.0, 0.0, -8.49, -8.49, -8.49, -8.49, -8.24, -8.0, -8.49, -8.05, 0.0, 0.0, 1.4, 1.18, 1.09, 0.0, -4.0, -2.21, -0.0, 4.29, 6.88, 7.85, 6.45, 5.31, 5.75, 5.75, 5.75, -7.6, -7.6, -7.6, -7.6, -7.32, -7.32, -7.61, -7.33, -7.61, -7.61, -7.61, -7.61, -7.61, -7.61, -7.61, -7.95, -7.95, -7.95, -7.95, -7.61, -7.61, -7.33, -7.33, -7.61, -7.61, -7.33, -6.97, -6.97, -6.97, -6.97, -6.97, -6.97, -6.58, -6.58, -6.58, -6.33, -6.33, -6.33, -5.69, -5.69, -5.7, -5.7, -5.56, -5.32, -5.72, -5.32, -5.34, -5.34, -5.34, -5.63, -5.36, -5.66, -5.66, -5.38, -5.38, -5.68, -5.38, -5.69, -5.05, -5.37, -5.38, -5.38, -5.72, -5.43, -5.43, -5.06, -5.06, -5.06, -5.15, -5.95, -6.8, -5.37, -7.6, 0.0, -6.8, -8.05, -7.81, -8.94, -8.94, -8.49, -8.05, -6.8, -4.22, -1.32, 0.0, 0.0, 0.0, -2.95, -4.66, 0.0, 5.2, 7.21, 7.08, 7.08, 7.08, 7.54, 7.54, 7.54, -7.6, -7.6, -7.6, -7.6, -7.32, -7.32, -7.61, -7.95, -7.95, -7.95, -7.95, -7.95, -7.61, -7.95, -7.95, -8.24, -8.24, -7.95, -7.95, -7.95, -8.24, -7.6, -7.6, -7.61, -7.61, -7.33, -7.33, -7.33, -6.97, -6.97, -6.97, -6.97, -6.97, -6.97, -6.58, -6.33, -6.33, -6.33, -6.33, -6.34, -5.95, -5.7, -5.98, -5.72, -5.72, -5.72, -5.32, -5.34, -5.34, -5.63, -5.36, -5.66, -5.66, -5.66, -5.38, -5.68, -5.38, -5.69, -5.35, -5.37, -5.38, -5.38, -5.38, -5.43, -5.43, -5.43, -5.06, -5.06, -5.06, -5.95, -6.79, -7.15, -7.15, -6.4, -7.21, -7.6, -7.81, -7.2, -8.49, -8.24, -8.05, -8.05, -7.07, -3.68, -1.11, 0.0, 0.0, -0.83, -0.89, 0.0, 4.11, 6.94, 7.45, 7.94, 8.41, 8.43, 8.43, 8.43, -7.6, -7.6, -7.6, -7.6, -7.32, -7.61, -7.61, -8.24, -7.95, -7.95, -7.95, -8.24, -8.24, -8.24, -8.24, -8.24, -8.24, -8.24, -8.24, -8.24, -7.96, -7.96, -7.96, -7.6, -7.61, -7.61, -7.33, -7.33, -7.33, -7.33, -6.97, -6.97, -6.97, -6.71, -6.71, -6.33, -6.33, -6.33, -6.33, -6.08, -6.34, -6.08, -5.98, -5.98, -5.98, -5.72, -5.72, -5.6, -5.34, -5.63, -5.63, -5.66, -5.66, -5.66, -5.38, -5.68, -5.38, -5.69, -5.69, -5.37, -5.72, -5.72, -5.38, -5.43, -5.43, -5.43, -5.06, -5.37, -5.37, -5.59, -5.81, -7.6, -7.15, -7.15, -7.15, -7.6, -8.05, -7.63, 0.0, -7.6, -8.06, -8.49, -7.6, -4.14, -2.28, -1.01, 0.0, 0.0, 0.0, 0.0, 0.0, 4.71, 8.94, 8.94, 8.94, 8.49, 8.49, 8.49, -7.6, -7.6, -7.6, -7.6, -7.93, -7.93, -7.93, -8.24, -7.95, -7.95, -7.95, -8.24, -8.24, -7.96, -7.96, -8.24, -8.24, -8.24, -8.24, -8.24, -7.96, -7.96, -7.96, -7.96, -7.61, -7.61, -7.61, -7.33, -7.33, -7.33, -7.33, -6.97, -6.71, -6.71, -6.71, -6.71, -6.33, -6.33, -6.33, -6.34, -6.34, -6.34, -6.35, -5.98, -5.98, -5.98, -5.72, -5.6, -5.34, -5.63, -5.63, -5.66, -5.66, -5.66, -5.68, -5.68, -5.68, -5.69, -5.69, -5.69, -5.72, -5.72, -5.72, -5.77, -5.77, -5.77, -5.37, -5.37, -5.69, -5.93, -5.75, -7.21, -6.71, 0.0, 0.0, -7.6, -7.6, 0.0, 0.0, -0.0, -7.6, -8.49, -8.24, -5.69, -3.14, -1.01, 0.0, 0.97, 1.76, 0.89, 0.99, 2.69, 7.67, 8.24, 8.49, 8.49, 8.49, 8.49, -7.6, -7.6, -7.9, -8.22, -7.93, -7.93, -7.93, -7.93, -8.24, -7.95, -7.95, -8.24, -8.24, -7.96, -7.96, -7.96, -8.24, -8.24, -8.24, -8.24, -7.96, -7.96, -7.96, -7.96, -7.95, -7.61, -7.61, -7.33, -7.61, -7.61, -7.61, -7.26, -6.98, -6.98, -6.71, -6.71, -6.33, -6.33, -6.08, -6.34, -5.95, -5.95, -6.24, -6.24, -5.98, -5.98, -5.32, -5.6, -5.6, -5.63, -5.94, -5.94, -5.66, -5.66, -5.59, -5.31, -5.31, -6.01, -5.35, -5.69, -6.06, -5.72, -5.72, -6.08, -5.77, -5.77, -6.18, -6.18, -6.18, -5.93, -5.75, -5.2, -4.46, 0.0, 0.0, -0.0, -3.2, -0.0, 0.0, -7.6, -8.05, -8.05, -7.89, -6.28, -3.35, -1.02, 0.0, 0.93, 1.76, 1.84, 2.97, 4.71, 6.52, 7.6, 7.95, 8.41, 8.41, 8.41, -7.6, -7.6, -7.9, -8.22, -7.93, -7.93, -7.93, -7.93, -8.24, -7.95, -7.95, -8.24, -8.24, -7.96, -7.96, -7.96, -8.24, -8.24, -8.24, -8.24, -7.96, -7.96, -7.96, -7.96, -7.95, -7.61, -7.61, -7.33, -7.61, -7.61, -7.61, -7.26, -6.98, -6.98, -6.71, -6.71, -6.33, -6.33, -6.08, -6.34, -5.95, -5.95, -6.24, -6.24, -5.98, -5.98, -5.32, -5.6, -5.6, -5.63, -5.94, -5.94, -5.66, -5.66, -5.59, -5.31, -5.31, -6.01, -5.35, -5.69, -6.06, -5.72, -5.72, -6.08, -5.77, -5.77, -6.18, -6.18, -6.18, -5.93, -5.75, -5.2, -4.46, 0.0, 0.0, -0.0, -0.0, -0.0, 0.0, -7.6, -8.05, -8.05, -7.47, -6.28, -4.46, -1.94, 0.0, 0.82, 1.62, 2.59, 3.36, 5.21, 6.01, 6.91, 7.37, 7.81, 7.81, 7.81]}]